Wetterdaten: Dienstag, 12.09.2017
Datum Zeit Temp. Aussen Temp. o. S. +5cm Feuchte Auss BlattFeu 1 Luftdruck Regen Sonnenschein Regendauer Solar Windben Empfang
12.09.2017 00:00 14,4 C 13,9 C 12,8 C 82 % 0 lf 999,2 hPa 0,0 l/m 0 min 0 min 5 W/m 39,7 km/h (6 Bft) 90,48 %
12.09.2017 00:02 14,4 C 13,9 C 12,8 C 82 % 0 lf 999,1 hPa 0,0 l/m 0 min 0 min 1 W/m 33,5 km/h (5 Bft) 87,50 %
12.09.2017 00:04 14,4 C 13,9 C 12,8 C 82 % 0 lf 999,1 hPa 0,0 l/m 0 min 0 min 0 W/m 31,4 km/h (5 Bft) 89,80 %
12.09.2017 00:08 14,4 C 13,9 C 12,8 C 82 % 0 lf 999,1 hPa 0,0 l/m 0 min 0 min 0 W/m 37,7 km/h (5 Bft) 90,20 %
12.09.2017 00:10 14,4 C 13,9 C 12,8 C 82 % 0 lf 999,1 hPa 0,0 l/m 0 min 0 min 0 W/m 25,1 km/h (4 Bft) 86,96 %
12.09.2017 00:12 14,3 C 13,9 C 12,2 C 82 % 0 lf 999,1 hPa 0,0 l/m 0 min 0 min 0 W/m 29,3 km/h (5 Bft) 91,49 %
12.09.2017 00:14 14,3 C 13,9 C 12,2 C 82 % 0 lf 999,1 hPa 0,0 l/m 0 min 0 min 0 W/m 29,3 km/h (5 Bft) 88,10 %
12.09.2017 00:16 14,3 C 13,9 C 12,8 C 82 % 0 lf 999,1 hPa 0,0 l/m 0 min 0 min 0 W/m 23,0 km/h (4 Bft) 87,23 %
12.09.2017 00:18 14,3 C 13,9 C 12,8 C 83 % 0 lf 999,1 hPa 0,0 l/m 0 min 0 min 0 W/m 20,9 km/h (4 Bft) 89,58 %
12.09.2017 00:20 14,3 C 13,9 C 12,8 C 83 % 0 lf 999,1 hPa 0,0 l/m 0 min 0 min 0 W/m 35,6 km/h (5 Bft) 89,58 %
12.09.2017 00:22 14,3 C 13,9 C 12,8 C 83 % 0 lf 999,0 hPa 0,0 l/m 0 min 0 min 0 W/m 27,2 km/h (4 Bft) 91,49 %
12.09.2017 00:24 14,3 C 13,9 C 12,8 C 83 % 0 lf 999,1 hPa 0,0 l/m 0 min 0 min 0 W/m 25,1 km/h (4 Bft) 89,58 %
12.09.2017 00:26 14,3 C 13,9 C 12,8 C 83 % 0 lf 999,0 hPa 0,0 l/m 0 min 0 min 0 W/m 31,4 km/h (5 Bft) 89,13 %
12.09.2017 00:28 14,3 C 13,9 C 12,8 C 83 % 0 lf 999,0 hPa 0,0 l/m 0 min 0 min 0 W/m 27,2 km/h (4 Bft) 91,67 %
12.09.2017 00:30 14,3 C 13,9 C 12,8 C 83 % 0 lf 999,1 hPa 0,0 l/m 0 min 0 min 4 W/m 33,5 km/h (5 Bft) 93,62 %
12.09.2017 00:32 14,3 C 13,9 C 12,8 C 83 % 0 lf 999,0 hPa 0,0 l/m 0 min 0 min 0 W/m 35,6 km/h (5 Bft) 89,36 %
12.09.2017 00:34 14,3 C 13,9 C 12,2 C 83 % 0 lf 998,9 hPa 0,0 l/m 0 min 0 min 3 W/m 25,1 km/h (4 Bft) 93,62 %
12.09.2017 00:36 14,2 C 13,9 C 12,2 C 83 % 0 lf 999,0 hPa 0,0 l/m 0 min 0 min 1 W/m 43,9 km/h (6 Bft) 91,49 %
12.09.2017 00:38 14,2 C 13,9 C 12,2 C 83 % 0 lf 999,0 hPa 0,0 l/m 0 min 0 min 0 W/m 29,3 km/h (5 Bft) 95,74 %
12.09.2017 00:40 14,2 C 13,9 C 12,2 C 83 % 0 lf 999,0 hPa 0,0 l/m 0 min 0 min 0 W/m 25,1 km/h (4 Bft) 97,87 %
12.09.2017 00:42 14,2 C 13,9 C 12,2 C 83 % 0 lf 998,9 hPa 0,0 l/m 0 min 0 min 0 W/m 37,7 km/h (5 Bft) 97,87 %
12.09.2017 00:44 14,2 C 13,9 C 12,2 C 83 % 0 lf 999,0 hPa 0,0 l/m 0 min 0 min 0 W/m 33,5 km/h (5 Bft) 97,87 %
12.09.2017 00:46 14,2 C 13,9 C 12,2 C 83 % 0 lf 999,1 hPa 0,0 l/m 0 min 0 min 0 W/m 39,7 km/h (6 Bft) 100,00 %
12.09.2017 00:48 14,2 C 13,9 C 12,8 C 83 % 0 lf 999,0 hPa 0,0 l/m 0 min 0 min 0 W/m 33,5 km/h (5 Bft) 93,62 %
12.09.2017 00:50 14,2 C 13,9 C 12,2 C 83 % 0 lf 999,0 hPa 0,0 l/m 0 min 0 min 1 W/m 31,4 km/h (5 Bft) 100,00 %
12.09.2017 00:52 14,2 C 13,9 C 12,2 C 83 % 0 lf 998,9 hPa 0,0 l/m 0 min 0 min 4 W/m 25,1 km/h (4 Bft) 100,00 %
12.09.2017 00:54 14,2 C 13,9 C 12,8 C 83 % 0 lf 999,0 hPa 0,0 l/m 0 min 0 min 0 W/m 48,1 km/h (6 Bft) 100,00 %
12.09.2017 00:56 14,2 C 13,9 C 12,8 C 83 % 0 lf 998,9 hPa 0,0 l/m 0 min 0 min 0 W/m 27,2 km/h (4 Bft) 97,92 %
12.09.2017 00:58 14,2 C 13,9 C 12,8 C 83 % 0 lf 998,9 hPa 0,0 l/m 0 min 0 min 0 W/m 33,5 km/h (5 Bft) 100,00 %
12.09.2017 01:00 14,2 C 13,9 C 12,8 C 83 % 0 lf 998,9 hPa 0,0 l/m 0 min 0 min 0 W/m 29,3 km/h (5 Bft) 97,87 %
12.09.2017 01:02 14,2 C 13,9 C 12,8 C 83 % 0 lf 999,0 hPa 0,0 l/m 0 min 0 min 0 W/m 27,2 km/h (4 Bft) 100,00 %
12.09.2017 01:04 14,2 C 13,9 C 12,2 C 83 % 0 lf 998,9 hPa 0,0 l/m 0 min 0 min 0 W/m 29,3 km/h (5 Bft) 97,67 %
12.09.2017 01:06 14,2 C 13,9 C 12,2 C 83 % 0 lf 998,9 hPa 0,0 l/m 0 min 0 min 0 W/m 27,2 km/h (4 Bft) 100,00 %
12.09.2017 01:08 14,2 C 13,9 C 12,2 C 83 % 0 lf 998,8 hPa 0,0 l/m 0 min 0 min 0 W/m 25,1 km/h (4 Bft) 100,00 %
12.09.2017 01:10 14,2 C 13,9 C 12,2 C 83 % 0 lf 998,9 hPa 0,0 l/m 0 min 0 min 0 W/m 37,7 km/h (5 Bft) 100,00 %
12.09.2017 01:12 14,2 C 13,9 C 12,2 C 83 % 0 lf 998,9 hPa 0,0 l/m 0 min 0 min 0 W/m 39,7 km/h (6 Bft) 97,92 %
12.09.2017 01:14 14,2 C 13,9 C 12,2 C 83 % 0 lf 999,0 hPa 0,0 l/m 0 min 0 min 0 W/m 31,4 km/h (5 Bft) 100,00 %
12.09.2017 01:16 14,2 C 13,9 C 12,2 C 83 % 0 lf 999,0 hPa 0,0 l/m 0 min 0 min 0 W/m 27,2 km/h (4 Bft) 100,00 %
12.09.2017 01:18 14,2 C 13,9 C 12,2 C 83 % 0 lf 999,0 hPa 0,0 l/m 0 min 0 min 0 W/m 25,1 km/h (4 Bft) 100,00 %
12.09.2017 01:20 14,2 C 13,9 C 12,2 C 83 % 0 lf 999,0 hPa 0,0 l/m 0 min 0 min 0 W/m 37,7 km/h (5 Bft) 100,00 %
12.09.2017 01:22 14,2 C 13,9 C 12,2 C 83 % 0 lf 999,0 hPa 0,0 l/m 0 min 0 min 0 W/m 23,0 km/h (4 Bft) 97,87 %
12.09.2017 01:24 14,2 C 13,9 C 12,2 C 83 % 0 lf 999,0 hPa 0,0 l/m 0 min 0 min 0 W/m 37,7 km/h (5 Bft) 95,74 %
12.09.2017 01:26 14,2 C 13,9 C 12,2 C 83 % 0 lf 999,0 hPa 0,0 l/m 0 min 0 min 0 W/m 33,5 km/h (5 Bft) 100,00 %
12.09.2017 01:28 14,2 C 13,9 C 12,8 C 83 % 0 lf 999,0 hPa 0,0 l/m 0 min 0 min 0 W/m 29,3 km/h (5 Bft) 100,00 %
12.09.2017 01:30 14,2 C 13,9 C 12,8 C 83 % 0 lf 999,0 hPa 0,0 l/m 0 min 0 min 0 W/m 23,0 km/h (4 Bft) 100,00 %
12.09.2017 01:32 14,2 C 13,9 C 12,8 C 83 % 0 lf 999,0 hPa 0,0 l/m 0 min 0 min 0 W/m 27,2 km/h (4 Bft) 100,00 %
12.09.2017 01:34 14,2 C 13,9 C 12,2 C 83 % 0 lf 999,0 hPa 0,0 l/m 0 min 0 min 0 W/m 29,3 km/h (5 Bft) 100,00 %
12.09.2017 01:36 14,2 C 13,9 C 12,8 C 83 % 0 lf 999,0 hPa 0,0 l/m 0 min 0 min 0 W/m 27,2 km/h (4 Bft) 100,00 %
12.09.2017 01:38 14,2 C 13,9 C 12,8 C 83 % 0 lf 999,1 hPa 0,0 l/m 0 min 0 min 0 W/m 29,3 km/h (5 Bft) 100,00 %
12.09.2017 01:40 14,2 C 13,9 C 12,8 C 83 % 0 lf 999,1 hPa 0,0 l/m 0 min 0 min 0 W/m 20,9 km/h (4 Bft) 95,83 %
12.09.2017 01:42 14,2 C 13,9 C 12,8 C 83 % 0 lf 999,1 hPa 0,0 l/m 0 min 0 min 0 W/m 27,2 km/h (4 Bft) 95,83 %
12.09.2017 01:44 14,2 C 13,9 C 12,8 C 83 % 0 lf 999,1 hPa 0,0 l/m 0 min 0 min 0 W/m 27,2 km/h (4 Bft) 97,92 %
12.09.2017 01:46 14,2 C 13,9 C 12,8 C 83 % 0 lf 999,1 hPa 0,0 l/m 0 min 0 min 0 W/m 18,8 km/h (3 Bft) 97,87 %
12.09.2017 01:48 14,2 C 13,9 C 12,8 C 84 % 0 lf 999,2 hPa 0,0 l/m 0 min 0 min 0 W/m 23,0 km/h (4 Bft) 100,00 %
12.09.2017 01:50 14,2 C 13,9 C 12,8 C 84 % 0 lf 999,3 hPa 0,0 l/m 0 min 0 min 0 W/m 25,1 km/h (4 Bft) 97,87 %
12.09.2017 01:52 14,2 C 13,9 C 12,8 C 84 % 0 lf 999,3 hPa 0,0 l/m 0 min 0 min 0 W/m 23,0 km/h (4 Bft) 100,00 %
12.09.2017 01:54 14,2 C 13,9 C 12,8 C 84 % 0 lf 999,2 hPa 0,0 l/m 0 min 0 min 0 W/m 23,0 km/h (4 Bft) 95,74 %
12.09.2017 01:56 14,2 C 13,9 C 12,8 C 84 % 0 lf 999,1 hPa 0,0 l/m 0 min 0 min 0 W/m 23,0 km/h (4 Bft) 97,83 %
12.09.2017 01:58 14,2 C 13,9 C 12,8 C 84 % 0 lf 999,1 hPa 0,0 l/m 0 min 0 min 0 W/m 29,3 km/h (5 Bft) 100,00 %
12.09.2017 02:00 14,2 C 13,9 C 12,8 C 84 % 0 lf 999,1 hPa 0,0 l/m 0 min 0 min 0 W/m 35,6 km/h (5 Bft) 100,00 %
12.09.2017 02:02 14,2 C 13,9 C 12,8 C 84 % 0 lf 999,1 hPa 0,0 l/m 0 min 0 min 0 W/m 23,0 km/h (4 Bft) 97,67 %
12.09.2017 02:04 14,2 C 13,9 C 12,8 C 84 % 0 lf 999,1 hPa 0,0 l/m 0 min 0 min 0 W/m 29,3 km/h (5 Bft) 95,83 %
12.09.2017 02:06 14,2 C 13,9 C 12,8 C 84 % 0 lf 999,1 hPa 0,0 l/m 0 min 0 min 0 W/m 25,1 km/h (4 Bft) 97,92 %
12.09.2017 02:08 14,2 C 13,9 C 12,8 C 84 % 0 lf 999,0 hPa 0,0 l/m 0 min 0 min 0 W/m 27,2 km/h (4 Bft) 97,87 %
12.09.2017 02:10 14,2 C 13,9 C 12,8 C 84 % 0 lf 999,0 hPa 0,0 l/m 0 min 0 min 0 W/m 23,0 km/h (4 Bft) 97,87 %
12.09.2017 02:12 14,2 C 13,9 C 12,2 C 84 % 0 lf 999,0 hPa 0,0 l/m 0 min 0 min 0 W/m 33,5 km/h (5 Bft) 97,87 %
12.09.2017 02:14 14,2 C 13,9 C 12,2 C 84 % 0 lf 999,0 hPa 0,0 l/m 0 min 0 min 0 W/m 18,8 km/h (3 Bft) 97,92 %
12.09.2017 02:16 14,2 C 13,9 C 12,2 C 84 % 0 lf 999,0 hPa 0,0 l/m 0 min 0 min 0 W/m 27,2 km/h (4 Bft) 93,62 %
12.09.2017 02:18 14,2 C 13,9 C 12,2 C 84 % 0 lf 999,1 hPa 0,0 l/m 0 min 0 min 0 W/m 20,9 km/h (4 Bft) 97,83 %
12.09.2017 02:20 14,2 C 13,9 C 12,2 C 84 % 0 lf 999,2 hPa 0,0 l/m 0 min 0 min 0 W/m 20,9 km/h (4 Bft) 97,87 %
12.09.2017 02:22 14,2 C 13,9 C 12,2 C 84 % 0 lf 999,2 hPa 0,0 l/m 0 min 0 min 0 W/m 25,1 km/h (4 Bft) 93,62 %
12.09.2017 02:24 14,2 C 13,9 C 12,8 C 84 % 0 lf 999,2 hPa 0,0 l/m 0 min 0 min 0 W/m 31,4 km/h (5 Bft) 95,74 %
12.09.2017 02:26 14,2 C 13,9 C 12,8 C 84 % 0 lf 999,2 hPa 0,0 l/m 0 min 0 min 0 W/m 31,4 km/h (5 Bft) 95,74 %
12.09.2017 02:28 14,2 C 13,9 C 12,8 C 84 % 0 lf 999,2 hPa 0,0 l/m 0 min 0 min 0 W/m 39,7 km/h (6 Bft) 97,87 %
12.09.2017 02:30 14,2 C 13,9 C 12,8 C 84 % 0 lf 999,2 hPa 0,0 l/m 0 min 0 min 0 W/m 23,0 km/h (4 Bft) 95,65 %
12.09.2017 02:32 14,2 C 13,9 C 12,8 C 84 % 0 lf 999,2 hPa 0,0 l/m 0 min 0 min 0 W/m 35,6 km/h (5 Bft) 93,62 %
12.09.2017 02:34 14,2 C 13,9 C 12,8 C 84 % 0 lf 999,2 hPa 0,0 l/m 0 min 0 min 0 W/m 18,8 km/h (3 Bft) 97,87 %
12.09.2017 02:36 14,2 C 13,9 C 12,2 C 84 % 0 lf 999,2 hPa 0,0 l/m 0 min 0 min 0 W/m 23,0 km/h (4 Bft) 100,00 %
12.09.2017 02:38 14,2 C 13,9 C 12,2 C 84 % 0 lf 999,3 hPa 0,0 l/m 0 min 0 min 0 W/m 23,0 km/h (4 Bft) 97,87 %
12.09.2017 02:40 14,2 C 13,9 C 12,8 C 84 % 0 lf 999,4 hPa 0,0 l/m 0 min 0 min 0 W/m 18,8 km/h (3 Bft) 97,87 %
12.09.2017 02:42 14,2 C 13,9 C 12,8 C 84 % 0 lf 999,3 hPa 0,0 l/m 0 min 0 min 0 W/m 33,5 km/h (5 Bft) 95,12 %
12.09.2017 02:44 14,2 C 13,9 C 12,8 C 84 % 0 lf 999,4 hPa 0,0 l/m 0 min 0 min 0 W/m 27,2 km/h (4 Bft) 93,75 %
12.09.2017 02:46 14,2 C 13,9 C 12,8 C 84 % 0 lf 999,4 hPa 0,0 l/m 0 min 0 min 0 W/m 20,9 km/h (4 Bft) 93,62 %
12.09.2017 02:48 14,2 C 13,9 C 12,8 C 84 % 0 lf 999,3 hPa 0,0 l/m 0 min 0 min 0 W/m 27,2 km/h (4 Bft) 95,74 %
12.09.2017 02:50 14,2 C 13,9 C 12,8 C 84 % 0 lf 999,4 hPa 0,0 l/m 0 min 0 min 0 W/m 25,1 km/h (4 Bft) 89,36 %
12.09.2017 02:52 14,2 C 13,9 C 12,8 C 84 % 0 lf 999,4 hPa 0,0 l/m 0 min 0 min 0 W/m 23,0 km/h (4 Bft) 95,83 %
12.09.2017 02:54 14,2 C 13,9 C 12,8 C 84 % 0 lf 999,4 hPa 0,0 l/m 0 min 0 min 0 W/m 20,9 km/h (4 Bft) 97,87 %
12.09.2017 02:56 14,2 C 13,9 C 12,8 C 84 % 0 lf 999,4 hPa 0,0 l/m 0 min 0 min 0 W/m 31,4 km/h (5 Bft) 95,83 %
12.09.2017 02:58 14,2 C 14,4 C 12,8 C 84 % 0 lf 999,4 hPa 0,0 l/m 0 min 0 min 0 W/m 31,4 km/h (5 Bft) 95,65 %
12.09.2017 03:00 14,2 C 14,4 C 12,8 C 84 % 0 lf 999,5 hPa 0,0 l/m 0 min 0 min 0 W/m 23,0 km/h (4 Bft) 95,92 %
12.09.2017 03:02 14,2 C 14,4 C 12,8 C 84 % 0 lf 999,5 hPa 0,0 l/m 0 min 0 min 0 W/m 23,0 km/h (4 Bft) 91,49 %
12.09.2017 03:04 14,2 C 14,4 C 12,8 C 84 % 0 lf 999,4 hPa 0,0 l/m 0 min 0 min 0 W/m 31,4 km/h (5 Bft) 95,74 %
12.09.2017 03:06 14,2 C 14,4 C 12,8 C 84 % 0 lf 999,4 hPa 0,0 l/m 0 min 0 min 0 W/m 29,3 km/h (5 Bft) 91,30 %
12.09.2017 03:08 14,2 C 14,4 C 12,8 C 84 % 0 lf 999,4 hPa 0,0 l/m 0 min 0 min 0 W/m 25,1 km/h (4 Bft) 91,49 %
12.09.2017 03:10 14,2 C 13,9 C 12,8 C 84 % 0 lf 999,5 hPa 0,0 l/m 0 min 0 min 0 W/m 25,1 km/h (4 Bft) 95,74 %
12.09.2017 03:12 14,2 C 13,9 C 12,8 C 84 % 0 lf 999,5 hPa 0,0 l/m 0 min 0 min 0 W/m 16,7 km/h (3 Bft) 95,74 %
12.09.2017 03:14 14,2 C 13,9 C 12,8 C 84 % 0 lf 999,6 hPa 0,0 l/m 0 min 0 min 0 W/m 33,5 km/h (5 Bft) 95,74 %
12.09.2017 03:16 14,2 C 13,9 C 12,8 C 84 % 0 lf 999,6 hPa 0,0 l/m 0 min 0 min 2 W/m 18,8 km/h (3 Bft) 95,65 %
12.09.2017 03:18 14,3 C 13,9 C 12,8 C 84 % 0 lf 999,6 hPa 0,0 l/m 0 min 0 min 0 W/m 18,8 km/h (3 Bft) 95,74 %
12.09.2017 03:20 14,2 C 13,9 C 12,8 C 84 % 0 lf 999,7 hPa 0,0 l/m 0 min 0 min 0 W/m 27,2 km/h (4 Bft) 93,62 %
12.09.2017 03:22 14,2 C 13,9 C 12,8 C 84 % 0 lf 999,6 hPa 0,0 l/m 0 min 0 min 0 W/m 25,1 km/h (4 Bft) 93,62 %
12.09.2017 03:24 14,2 C 13,9 C 12,8 C 84 % 0 lf 999,7 hPa 0,0 l/m 0 min 0 min 0 W/m 18,8 km/h (3 Bft) 91,49 %
12.09.2017 03:26 14,2 C 13,9 C 12,8 C 84 % 0 lf 999,7 hPa 0,0 l/m 0 min 0 min 0 W/m 18,8 km/h (3 Bft) 95,74 %
12.09.2017 03:28 14,2 C 13,9 C 12,8 C 84 % 0 lf 999,7 hPa 0,0 l/m 0 min 0 min 0 W/m 20,9 km/h (4 Bft) 95,65 %
12.09.2017 03:30 14,2 C 13,9 C 12,8 C 84 % 0 lf 999,8 hPa 0,0 l/m 0 min 0 min 1 W/m 25,1 km/h (4 Bft) 91,49 %
12.09.2017 03:32 14,2 C 13,9 C 12,8 C 84 % 0 lf 999,8 hPa 0,0 l/m 0 min 0 min 3 W/m 25,1 km/h (4 Bft) 91,49 %
12.09.2017 03:34 14,2 C 13,9 C 12,8 C 84 % 0 lf 999,8 hPa 0,0 l/m 0 min 0 min 0 W/m 16,7 km/h (3 Bft) 97,87 %
12.09.2017 03:36 14,2 C 13,9 C 12,8 C 84 % 0 lf 999,8 hPa 0,0 l/m 0 min 0 min 0 W/m 23,0 km/h (4 Bft) 97,87 %
12.09.2017 03:38 14,2 C 13,9 C 12,8 C 84 % 0 lf 999,8 hPa 0,0 l/m 0 min 0 min 0 W/m 23,0 km/h (4 Bft) 93,62 %
12.09.2017 03:40 14,2 C 13,9 C 12,8 C 84 % 1 lf 999,8 hPa 0,0 l/m 0 min 0 min 0 W/m 23,0 km/h (4 Bft) 93,48 %
12.09.2017 03:42 14,2 C 13,9 C 12,8 C 84 % 2 lf 999,8 hPa 0,0 l/m 0 min 2 min 0 W/m 23,0 km/h (4 Bft) 95,74 %
12.09.2017 03:44 14,2 C 13,9 C 12,8 C 84 % 8 lf 999,9 hPa 0,0 l/m 0 min 2 min 0 W/m 27,2 km/h (4 Bft) 97,87 %
12.09.2017 03:46 14,2 C 13,3 C 12,2 C 84 % 8 lf 999,8 hPa 0,0 l/m 0 min 2 min 0 W/m 25,1 km/h (4 Bft) 97,87 %
12.09.2017 03:48 14,2 C 13,3 C 11,7 C 85 % 15 lf 999,8 hPa 0,0 l/m 0 min 2 min 0 W/m 18,8 km/h (3 Bft) 95,74 %
12.09.2017 03:50 14,2 C 13,3 C 11,7 C 85 % 15 lf 999,9 hPa 0,0 l/m 0 min 2 min 0 W/m 25,1 km/h (4 Bft) 97,87 %
12.09.2017 03:52 14,2 C 12,8 C 11,1 C 85 % 15 lf 999,9 hPa 0,0 l/m 0 min 2 min 0 W/m 16,7 km/h (3 Bft) 95,65 %
12.09.2017 03:54 14,2 C 12,8 C 11,1 C 85 % 15 lf 999,8 hPa 0,0 l/m 0 min 2 min 0 W/m 14,6 km/h (3 Bft) 95,74 %
12.09.2017 03:56 14,2 C 12,8 C 11,1 C 86 % 15 lf 999,9 hPa 0,0 l/m 0 min 2 min 0 W/m 12,6 km/h (3 Bft) 97,87 %
12.09.2017 03:58 14,2 C 12,8 C 11,1 C 86 % 15 lf 999,9 hPa 0,0 l/m 0 min 2 min 0 W/m 23,0 km/h (4 Bft) 95,74 %
12.09.2017 04:00 14,1 C 12,8 C 11,1 C 86 % 15 lf 999,9 hPa 0,0 l/m 0 min 2 min 0 W/m 25,1 km/h (4 Bft) 93,62 %
12.09.2017 04:02 14,0 C 12,2 C 11,1 C 86 % 15 lf 999,9 hPa 0,0 l/m 0 min 2 min 0 W/m 29,3 km/h (5 Bft) 92,59 %
12.09.2017 04:04 13,9 C 12,2 C 11,1 C 87 % 15 lf 999,9 hPa 0,2 l/m 0 min 2 min 1 W/m 29,3 km/h (5 Bft) 97,83 %
12.09.2017 04:06 13,9 C 12,2 C 11,1 C 87 % 15 lf 999,9 hPa 0,0 l/m 0 min 2 min 1 W/m 20,9 km/h (4 Bft) 95,74 %
12.09.2017 04:08 13,8 C 11,7 C 10,6 C 87 % 15 lf 999,9 hPa 0,0 l/m 0 min 2 min 0 W/m 27,2 km/h (4 Bft) 95,74 %
12.09.2017 04:10 13,7 C 11,7 C 10,6 C 87 % 15 lf 999,8 hPa 0,0 l/m 0 min 2 min 0 W/m 23,0 km/h (4 Bft) 95,74 %
12.09.2017 04:12 13,6 C 11,7 C 10,6 C 88 % 15 lf 999,8 hPa 0,0 l/m 0 min 2 min 0 W/m 16,7 km/h (3 Bft) 95,74 %
12.09.2017 04:14 13,6 C 11,7 C 10,6 C 88 % 15 lf 1000,0 hPa 0,0 l/m 0 min 2 min 2 W/m 12,6 km/h (3 Bft) 93,62 %
12.09.2017 04:16 13,5 C 11,7 C 11,1 C 88 % 15 lf 1000,1 hPa 0,0 l/m 0 min 2 min 2 W/m 8,4 km/h (2 Bft) 97,83 %
12.09.2017 04:18 13,5 C 11,7 C 11,1 C 88 % 15 lf 1000,1 hPa 0,0 l/m 0 min 2 min 4 W/m 8,4 km/h (2 Bft) 95,74 %
12.09.2017 04:20 13,4 C 11,7 C 10,6 C 88 % 15 lf 1000,1 hPa 0,0 l/m 0 min 2 min 5 W/m 10,5 km/h (2 Bft) 95,74 %
12.09.2017 04:22 13,4 C 11,7 C 11,1 C 89 % 15 lf 1000,1 hPa 0,0 l/m 0 min 2 min 5 W/m 12,6 km/h (3 Bft) 95,74 %
12.09.2017 04:24 13,4 C 11,7 C 11,1 C 89 % 15 lf 1000,1 hPa 0,0 l/m 0 min 2 min 5 W/m 16,7 km/h (3 Bft) 93,62 %
12.09.2017 04:26 13,4 C 11,7 C 11,1 C 89 % 15 lf 1000,1 hPa 0,0 l/m 0 min 0 min 5 W/m 14,6 km/h (3 Bft) 93,48 %
12.09.2017 04:28 13,3 C 11,7 C 11,1 C 89 % 15 lf 1000,1 hPa 0,0 l/m 0 min 0 min 5 W/m 14,6 km/h (3 Bft) 93,62 %
12.09.2017 04:30 13,3 C 11,7 C 10,6 C 90 % 15 lf 1000,1 hPa 0,0 l/m 0 min 0 min 5 W/m 18,8 km/h (3 Bft) 97,87 %
12.09.2017 04:32 13,2 C 11,7 C 10,6 C 90 % 15 lf 1000,0 hPa 0,0 l/m 0 min 2 min 5 W/m 20,9 km/h (4 Bft) 100,00 %
12.09.2017 04:34 13,2 C 11,7 C 10,6 C 90 % 15 lf 1000,0 hPa 0,0 l/m 0 min 0 min 5 W/m 16,7 km/h (3 Bft) 100,00 %
12.09.2017 04:36 13,1 C 11,7 C 10,6 C 90 % 15 lf 1000,0 hPa 0,0 l/m 0 min 0 min 3 W/m 16,7 km/h (3 Bft) 100,00 %
12.09.2017 04:38 13,1 C 11,7 C 10,6 C 90 % 15 lf 1000,0 hPa 0,0 l/m 0 min 0 min 0 W/m 14,6 km/h (3 Bft) 97,83 %
12.09.2017 04:40 13,0 C 11,7 C 10,6 C 90 % 15 lf 1000,0 hPa 0,0 l/m 0 min 0 min 0 W/m 12,6 km/h (3 Bft) 100,00 %
12.09.2017 04:42 12,9 C 11,7 C 10,6 C 90 % 15 lf 1000,0 hPa 0,0 l/m 0 min 0 min 0 W/m 12,6 km/h (3 Bft) 100,00 %
12.09.2017 04:44 12,9 C 11,1 C 10,6 C 90 % 15 lf 1000,0 hPa 0,0 l/m 0 min 0 min 0 W/m 12,6 km/h (3 Bft) 95,74 %
12.09.2017 04:46 12,8 C 11,1 C 10,6 C 90 % 15 lf 1000,0 hPa 0,0 l/m 0 min 0 min 0 W/m 10,5 km/h (2 Bft) 97,87 %
12.09.2017 04:48 12,8 C 11,1 C 10,0 C 90 % 15 lf 1000,0 hPa 0,0 l/m 0 min 0 min 0 W/m 8,4 km/h (2 Bft) 100,00 %
12.09.2017 04:50 12,8 C 11,1 C 10,0 C 90 % 15 lf 1000,1 hPa 0,0 l/m 0 min 0 min 0 W/m 12,6 km/h (3 Bft) 97,83 %
12.09.2017 04:52 12,7 C 11,1 C 10,0 C 90 % 15 lf 1000,1 hPa 0,0 l/m 0 min 0 min 0 W/m 10,5 km/h (2 Bft) 100,00 %
12.09.2017 04:54 12,7 C 11,1 C 10,0 C 90 % 15 lf 1000,1 hPa 0,0 l/m 0 min 0 min 0 W/m 18,8 km/h (3 Bft) 100,00 %
12.09.2017 04:56 12,6 C 11,1 C 10,0 C 90 % 15 lf 1000,2 hPa 0,2 l/m 0 min 0 min 3 W/m 14,6 km/h (3 Bft) 100,00 %
12.09.2017 04:58 12,6 C 11,1 C 10,0 C 90 % 15 lf 1000,2 hPa 0,0 l/m 0 min 0 min 3 W/m 8,4 km/h (2 Bft) 97,87 %
12.09.2017 05:00 12,4 C 11,1 C 10,0 C 90 % 15 lf 1000,2 hPa 0,0 l/m 0 min 0 min 5 W/m 6,3 km/h (2 Bft) 95,74 %
12.09.2017 05:02 12,4 C 10,6 C 10,0 C 90 % 15 lf 1000,2 hPa 0,0 l/m 0 min 0 min 5 W/m 10,5 km/h (2 Bft) 95,65 %
12.09.2017 05:04 12,3 C 10,6 C 10,0 C 90 % 15 lf 1000,3 hPa 0,0 l/m 0 min 0 min 5 W/m 10,5 km/h (2 Bft) 100,00 %
12.09.2017 05:06 12,3 C 10,6 C 10,0 C 90 % 15 lf 1000,2 hPa 0,0 l/m 0 min 0 min 5 W/m 12,6 km/h (3 Bft) 100,00 %
12.09.2017 05:08 12,2 C 10,6 C 10,0 C 90 % 15 lf 1000,3 hPa 0,0 l/m 0 min 0 min 5 W/m 8,4 km/h (2 Bft) 95,74 %
12.09.2017 05:10 12,2 C 10,6 C 10,0 C 90 % 15 lf 1000,3 hPa 0,0 l/m 0 min 0 min 5 W/m 8,4 km/h (2 Bft) 100,00 %
12.09.2017 05:12 12,2 C 10,6 C 10,0 C 90 % 15 lf 1000,3 hPa 0,0 l/m 0 min 0 min 5 W/m 6,3 km/h (2 Bft) 100,00 %
12.09.2017 05:14 12,2 C 10,6 C 10,0 C 90 % 15 lf 1000,3 hPa 0,0 l/m 0 min 0 min 5 W/m 14,6 km/h (3 Bft) 100,00 %
12.09.2017 05:16 12,1 C 11,1 C 10,0 C 91 % 15 lf 1000,3 hPa 0,0 l/m 0 min 0 min 5 W/m 12,6 km/h (3 Bft) 93,62 %
12.09.2017 05:18 12,1 C 10,6 C 10,0 C 91 % 15 lf 1000,3 hPa 0,0 l/m 0 min 0 min 5 W/m 10,5 km/h (2 Bft) 100,00 %
12.09.2017 05:20 12,1 C 10,6 C 10,0 C 91 % 15 lf 1000,3 hPa 0,0 l/m 0 min 0 min 5 W/m 10,5 km/h (2 Bft) 97,87 %
12.09.2017 05:22 12,0 C 10,6 C 10,0 C 91 % 15 lf 1000,3 hPa 0,0 l/m 0 min 0 min 4 W/m 10,5 km/h (2 Bft) 97,87 %
12.09.2017 05:24 12,0 C 10,6 C 10,0 C 91 % 15 lf 1000,3 hPa 0,0 l/m 0 min 0 min 2 W/m 10,5 km/h (2 Bft) 97,87 %
12.09.2017 05:26 12,0 C 11,1 C 10,0 C 91 % 15 lf 1000,4 hPa 0,0 l/m 0 min 0 min 0 W/m 16,7 km/h (3 Bft) 100,00 %
12.09.2017 05:28 11,9 C 11,1 C 10,0 C 91 % 15 lf 1000,5 hPa 0,0 l/m 0 min 0 min 0 W/m 14,6 km/h (3 Bft) 100,00 %
12.09.2017 05:30 11,9 C 11,1 C 10,0 C 91 % 15 lf 1000,5 hPa 0,0 l/m 0 min 0 min 0 W/m 16,7 km/h (3 Bft) 97,87 %
12.09.2017 05:32 11,9 C 11,1 C 10,0 C 92 % 15 lf 1000,5 hPa 0,0 l/m 0 min 0 min 0 W/m 14,6 km/h (3 Bft) 95,74 %
12.09.2017 05:34 11,9 C 11,1 C 10,0 C 92 % 15 lf 1000,5 hPa 0,0 l/m 0 min 0 min 0 W/m 16,7 km/h (3 Bft) 95,74 %
12.09.2017 05:36 11,9 C 11,1 C 10,0 C 92 % 15 lf 1000,6 hPa 0,0 l/m 0 min 0 min 0 W/m 14,6 km/h (3 Bft) 95,65 %
12.09.2017 05:38 11,9 C 11,1 C 10,0 C 92 % 15 lf 1000,5 hPa 0,0 l/m 0 min 0 min 0 W/m 18,8 km/h (3 Bft) 91,49 %
12.09.2017 05:40 11,9 C 11,1 C 10,6 C 92 % 15 lf 1000,6 hPa 0,0 l/m 0 min 0 min 0 W/m 14,6 km/h (3 Bft) 95,74 %
12.09.2017 05:42 11,9 C 11,1 C 10,6 C 93 % 15 lf 1000,6 hPa 0,0 l/m 0 min 0 min 0 W/m 16,7 km/h (3 Bft) 95,74 %
12.09.2017 05:44 12,0 C 11,7 C 10,6 C 93 % 15 lf 1000,6 hPa 0,0 l/m 0 min 0 min 0 W/m 20,9 km/h (4 Bft) 93,62 %
12.09.2017 05:46 12,0 C 11,7 C 10,6 C 93 % 14 lf 1000,6 hPa 0,0 l/m 0 min 0 min 2 W/m 16,7 km/h (3 Bft) 93,62 %
12.09.2017 05:48 12,0 C 11,7 C 10,6 C 93 % 14 lf 1000,6 hPa 0,0 l/m 0 min 0 min 5 W/m 18,8 km/h (3 Bft) 89,36 %
12.09.2017 05:50 12,1 C 11,7 C 10,6 C 93 % 13 lf 1000,7 hPa 0,0 l/m 0 min 0 min 5 W/m 20,9 km/h (4 Bft) 91,30 %
12.09.2017 05:52 12,1 C 11,7 C 10,6 C 93 % 13 lf 1000,7 hPa 0,0 l/m 0 min 0 min 5 W/m 14,6 km/h (3 Bft) 93,62 %
12.09.2017 05:54 12,1 C 11,7 C 10,6 C 93 % 13 lf 1000,7 hPa 0,0 l/m 0 min 0 min 5 W/m 18,8 km/h (3 Bft) 89,36 %
12.09.2017 05:56 12,2 C 11,7 C 10,6 C 94 % 12 lf 1000,8 hPa 0,0 l/m 0 min 0 min 0 W/m 14,6 km/h (3 Bft) 89,36 %
12.09.2017 05:58 12,2 C 11,7 C 10,6 C 94 % 15 lf 1000,8 hPa 0,0 l/m 0 min 0 min 0 W/m 12,6 km/h (3 Bft) 93,62 %
12.09.2017 06:00 12,2 C 11,7 C 10,6 C 94 % 15 lf 1000,8 hPa 0,0 l/m 0 min 2 min 0 W/m 10,5 km/h (2 Bft) 93,48 %
12.09.2017 06:02 12,2 C 11,7 C 10,6 C 94 % 15 lf 1000,8 hPa 0,0 l/m 0 min 2 min 0 W/m 25,1 km/h (4 Bft) 93,62 %
12.09.2017 06:04 12,3 C 11,7 C 10,6 C 94 % 15 lf 1000,8 hPa 0,0 l/m 0 min 2 min 0 W/m 20,9 km/h (4 Bft) 93,62 %
12.09.2017 06:06 12,3 C 11,7 C 10,6 C 94 % 15 lf 1000,8 hPa 0,0 l/m 0 min 2 min 0 W/m 20,9 km/h (4 Bft) 93,62 %
12.09.2017 06:10 12,3 C 11,7 C 10,6 C 94 % 15 lf 1000,9 hPa 0,2 l/m 0 min 4 min 5 W/m 25,1 km/h (4 Bft) 92,71 %
12.09.2017 06:12 12,3 C 11,7 C 10,6 C 94 % 15 lf 1000,9 hPa 0,0 l/m 0 min 2 min 5 W/m 16,7 km/h (3 Bft) 92,86 %
12.09.2017 06:14 12,3 C 11,7 C 10,6 C 94 % 15 lf 1000,9 hPa 0,0 l/m 0 min 2 min 5 W/m 27,2 km/h (4 Bft) 91,30 %
12.09.2017 06:16 12,3 C 11,7 C 10,6 C 94 % 15 lf 1000,9 hPa 0,0 l/m 0 min 0 min 5 W/m 25,1 km/h (4 Bft) 93,62 %
12.09.2017 06:18 12,3 C 11,7 C 10,6 C 94 % 15 lf 1001,0 hPa 0,0 l/m 0 min 0 min 4 W/m 23,0 km/h (4 Bft) 95,74 %
12.09.2017 06:20 12,3 C 11,7 C 10,6 C 94 % 15 lf 1001,1 hPa 0,0 l/m 0 min 2 min 5 W/m 16,7 km/h (3 Bft) 93,62 %
12.09.2017 06:22 12,4 C 11,7 C 10,6 C 95 % 15 lf 1001,1 hPa 0,2 l/m 0 min 2 min 5 W/m 16,7 km/h (3 Bft) 97,87 %
12.09.2017 06:24 12,4 C 11,7 C 10,6 C 95 % 15 lf 1001,2 hPa 0,0 l/m 0 min 2 min 0 W/m 23,0 km/h (4 Bft) 100,00 %
12.09.2017 06:26 12,4 C 11,7 C 10,6 C 95 % 15 lf 1001,3 hPa 0,2 l/m 0 min 2 min 0 W/m 14,6 km/h (3 Bft) 100,00 %
12.09.2017 06:28 12,4 C 11,7 C 10,6 C 95 % 15 lf 1001,1 hPa 0,4 l/m 0 min 2 min 0 W/m 18,8 km/h (3 Bft) 100,00 %
12.09.2017 06:30 12,4 C 11,7 C 10,6 C 95 % 15 lf 1001,1 hPa 0,0 l/m 0 min 2 min 0 W/m 12,6 km/h (3 Bft) 95,74 %
12.09.2017 06:32 12,4 C 11,7 C 11,1 C 95 % 15 lf 1001,2 hPa 0,0 l/m 0 min 2 min 0 W/m 20,9 km/h (4 Bft) 100,00 %
12.09.2017 06:34 12,4 C 11,7 C 10,6 C 95 % 15 lf 1001,2 hPa 0,0 l/m 0 min 0 min 0 W/m 12,6 km/h (3 Bft) 100,00 %
12.09.2017 06:36 12,4 C 11,7 C 10,6 C 95 % 15 lf 1001,1 hPa 0,0 l/m 0 min 0 min 0 W/m 14,6 km/h (3 Bft) 100,00 %
12.09.2017 06:38 12,4 C 11,7 C 10,6 C 95 % 15 lf 1001,2 hPa 0,0 l/m 0 min 0 min 0 W/m 18,8 km/h (3 Bft) 95,74 %
12.09.2017 06:40 12,4 C 11,7 C 10,6 C 95 % 15 lf 1001,3 hPa 0,0 l/m 0 min 0 min 0 W/m 20,9 km/h (4 Bft) 100,00 %
12.09.2017 06:42 12,4 C 11,7 C 10,6 C 95 % 15 lf 1001,3 hPa 0,0 l/m 0 min 0 min 0 W/m 18,8 km/h (3 Bft) 100,00 %
12.09.2017 06:44 12,4 C 11,7 C 10,6 C 95 % 15 lf 1001,3 hPa 0,0 l/m 0 min 2 min 0 W/m 25,1 km/h (4 Bft) 97,87 %
12.09.2017 06:46 12,4 C 11,7 C 10,6 C 95 % 15 lf 1001,2 hPa 0,0 l/m 0 min 2 min 0 W/m 18,8 km/h (3 Bft) 100,00 %
12.09.2017 06:48 12,3 C 11,7 C 10,6 C 95 % 15 lf 1001,3 hPa 0,0 l/m 0 min 0 min 0 W/m 25,1 km/h (4 Bft) 100,00 %
12.09.2017 06:50 12,4 C 11,7 C 10,6 C 95 % 15 lf 1001,5 hPa 0,0 l/m 0 min 0 min 0 W/m 25,1 km/h (4 Bft) 100,00 %
12.09.2017 06:52 12,3 C 11,7 C 10,6 C 95 % 15 lf 1001,4 hPa 0,0 l/m 0 min 0 min 0 W/m 18,8 km/h (3 Bft) 97,87 %
12.09.2017 06:54 12,3 C 11,7 C 10,6 C 95 % 15 lf 1001,5 hPa 0,0 l/m 0 min 0 min 0 W/m 18,8 km/h (3 Bft) 100,00 %
12.09.2017 06:56 12,3 C 11,7 C 10,6 C 95 % 15 lf 1001,6 hPa 0,0 l/m 0 min 0 min 0 W/m 14,6 km/h (3 Bft) 100,00 %
12.09.2017 06:58 12,3 C 11,7 C 10,6 C 95 % 15 lf 1001,6 hPa 0,0 l/m 0 min 0 min 0 W/m 18,8 km/h (3 Bft) 97,87 %
12.09.2017 07:00 12,3 C 11,7 C 10,6 C 95 % 15 lf 1001,6 hPa 0,0 l/m 0 min 0 min 5 W/m 20,9 km/h (4 Bft) 100,00 %
12.09.2017 07:02 12,3 C 11,7 C 10,6 C 96 % 15 lf 1001,7 hPa 0,0 l/m 0 min 0 min 5 W/m 18,8 km/h (3 Bft) 100,00 %
12.09.2017 07:04 12,3 C 11,7 C 11,1 C 96 % 15 lf 1001,6 hPa 0,0 l/m 0 min 0 min 5 W/m 18,8 km/h (3 Bft) 100,00 %
12.09.2017 07:06 12,3 C 11,7 C 11,1 C 96 % 15 lf 1001,6 hPa 0,0 l/m 0 min 0 min 5 W/m 20,9 km/h (4 Bft) 95,74 %
12.09.2017 07:08 12,3 C 11,7 C 11,1 C 96 % 15 lf 1001,7 hPa 0,0 l/m 0 min 0 min 5 W/m 18,8 km/h (3 Bft) 100,00 %
12.09.2017 07:10 12,3 C 11,7 C 11,1 C 96 % 15 lf 1001,7 hPa 0,0 l/m 0 min 0 min 5 W/m 20,9 km/h (4 Bft) 97,87 %
12.09.2017 07:12 12,3 C 11,7 C 11,1 C 96 % 15 lf 1001,8 hPa 0,0 l/m 0 min 0 min 7 W/m 20,9 km/h (4 Bft) 100,00 %
12.09.2017 07:14 12,3 C 11,7 C 11,1 C 96 % 15 lf 1001,8 hPa 0,0 l/m 0 min 0 min 7 W/m 25,1 km/h (4 Bft) 100,00 %
12.09.2017 07:16 12,3 C 11,7 C 11,1 C 96 % 15 lf 1001,8 hPa 0,0 l/m 0 min 0 min 9 W/m 20,9 km/h (4 Bft) 95,74 %
12.09.2017 07:18 12,3 C 11,7 C 11,1 C 96 % 15 lf 1001,8 hPa 0,0 l/m 0 min 0 min 9 W/m 16,7 km/h (3 Bft) 93,62 %
12.09.2017 07:20 12,3 C 11,7 C 11,1 C 96 % 15 lf 1001,8 hPa 0,0 l/m 0 min 0 min 7 W/m 20,9 km/h (4 Bft) 97,87 %
12.09.2017 07:22 12,3 C 11,7 C 11,1 C 96 % 15 lf 1001,9 hPa 0,0 l/m 0 min 0 min 9 W/m 25,1 km/h (4 Bft) 97,87 %
12.09.2017 07:24 12,3 C 11,7 C 11,1 C 96 % 15 lf 1001,9 hPa 0,0 l/m 0 min 0 min 9 W/m 16,7 km/h (3 Bft) 97,83 %
12.09.2017 07:26 12,3 C 11,7 C 11,1 C 96 % 15 lf 1001,9 hPa 0,0 l/m 0 min 0 min 9 W/m 33,5 km/h (5 Bft) 95,74 %
12.09.2017 07:28 12,3 C 11,7 C 11,1 C 96 % 15 lf 1002,0 hPa 0,0 l/m 0 min 0 min 10 W/m 31,4 km/h (5 Bft) 97,87 %
12.09.2017 07:30 12,3 C 11,7 C 11,1 C 96 % 15 lf 1002,0 hPa 0,0 l/m 0 min 0 min 9 W/m 29,3 km/h (5 Bft) 97,87 %
12.09.2017 07:32 12,3 C 11,7 C 11,1 C 96 % 15 lf 1002,1 hPa 0,0 l/m 0 min 0 min 9 W/m 27,2 km/h (4 Bft) 97,87 %
12.09.2017 07:34 12,3 C 11,7 C 11,1 C 96 % 15 lf 1002,2 hPa 0,0 l/m 0 min 0 min 9 W/m 23,0 km/h (4 Bft) 97,87 %
12.09.2017 07:36 12,3 C 11,7 C 11,1 C 96 % 15 lf 1002,3 hPa 0,0 l/m 0 min 0 min 7 W/m 20,9 km/h (4 Bft) 93,48 %
12.09.2017 07:38 12,3 C 11,7 C 11,1 C 96 % 15 lf 1002,2 hPa 0,0 l/m 0 min 0 min 9 W/m 23,0 km/h (4 Bft) 97,87 %
12.09.2017 07:40 12,3 C 11,7 C 11,1 C 96 % 15 lf 1002,3 hPa 0,0 l/m 0 min 0 min 9 W/m 27,2 km/h (4 Bft) 95,74 %
12.09.2017 07:42 12,3 C 11,7 C 11,1 C 96 % 15 lf 1002,4 hPa 0,0 l/m 0 min 0 min 10 W/m 23,0 km/h (4 Bft) 97,87 %
12.09.2017 07:44 12,3 C 11,7 C 11,1 C 96 % 15 lf 1002,3 hPa 0,0 l/m 0 min 0 min 11 W/m 16,7 km/h (3 Bft) 97,87 %
12.09.2017 07:46 12,3 C 11,7 C 11,1 C 96 % 15 lf 1002,5 hPa 0,0 l/m 0 min 0 min 12 W/m 31,4 km/h (5 Bft) 93,48 %
12.09.2017 07:48 12,3 C 11,7 C 11,1 C 96 % 15 lf 1002,5 hPa 0,0 l/m 0 min 0 min 16 W/m 25,1 km/h (4 Bft) 91,49 %
12.09.2017 07:50 12,3 C 11,7 C 11,1 C 96 % 15 lf 1002,5 hPa 0,0 l/m 0 min 0 min 18 W/m 25,1 km/h (4 Bft) 89,36 %
12.09.2017 07:52 12,3 C 11,7 C 11,1 C 96 % 15 lf 1002,5 hPa 0,0 l/m 0 min 0 min 18 W/m 23,0 km/h (4 Bft) 95,74 %
12.09.2017 07:54 12,3 C 11,7 C 11,1 C 96 % 15 lf 1002,6 hPa 0,0 l/m 0 min 0 min 16 W/m 35,6 km/h (5 Bft) 97,87 %
12.09.2017 07:56 12,3 C 11,7 C 11,1 C 96 % 15 lf 1002,6 hPa 0,0 l/m 0 min 0 min 12 W/m 31,4 km/h (5 Bft) 95,74 %
12.09.2017 07:58 12,3 C 11,7 C 11,1 C 96 % 15 lf 1002,5 hPa 0,0 l/m 0 min 0 min 12 W/m 23,0 km/h (4 Bft) 97,83 %
12.09.2017 08:00 12,3 C 11,7 C 11,1 C 96 % 15 lf 1002,6 hPa 0,0 l/m 0 min 0 min 13 W/m 27,2 km/h (4 Bft) 93,48 %
12.09.2017 08:02 12,3 C 11,7 C 11,1 C 96 % 15 lf 1002,7 hPa 0,0 l/m 0 min 0 min 16 W/m 23,0 km/h (4 Bft) 93,62 %
12.09.2017 08:04 12,3 C 11,7 C 11,1 C 96 % 15 lf 1002,7 hPa 0,0 l/m 0 min 0 min 17 W/m 25,1 km/h (4 Bft) 95,74 %
12.09.2017 08:06 12,3 C 11,7 C 11,1 C 96 % 15 lf 1002,7 hPa 0,0 l/m 0 min 0 min 19 W/m 18,8 km/h (3 Bft) 95,74 %
12.09.2017 08:08 12,3 C 11,7 C 11,1 C 96 % 15 lf 1002,7 hPa 0,0 l/m 0 min 0 min 22 W/m 20,9 km/h (4 Bft) 91,49 %
12.09.2017 08:10 12,3 C 11,7 C 11,1 C 96 % 15 lf 1002,6 hPa 0,0 l/m 0 min 0 min 35 W/m 18,8 km/h (3 Bft) 95,65 %
12.09.2017 08:12 12,3 C 12,2 C 11,1 C 96 % 15 lf 1002,7 hPa 0,0 l/m 0 min 0 min 45 W/m 25,1 km/h (4 Bft) 93,62 %
12.09.2017 08:14 12,3 C 12,2 C 11,1 C 96 % 15 lf 1002,7 hPa 0,0 l/m 0 min 0 min 45 W/m 23,0 km/h (4 Bft) 95,74 %
12.09.2017 08:16 12,3 C 12,2 C 11,1 C 96 % 15 lf 1002,7 hPa 0,0 l/m 0 min 0 min 51 W/m 18,8 km/h (3 Bft) 95,74 %
12.09.2017 08:18 12,3 C 12,2 C 11,1 C 96 % 15 lf 1002,7 hPa 0,0 l/m 0 min 0 min 49 W/m 20,9 km/h (4 Bft) 95,74 %
12.09.2017 08:20 12,4 C 12,2 C 11,7 C 96 % 14 lf 1002,7 hPa 0,0 l/m 0 min 0 min 58 W/m 16,7 km/h (3 Bft) 93,62 %
12.09.2017 08:22 12,4 C 12,2 C 11,7 C 96 % 14 lf 1002,7 hPa 0,0 l/m 0 min 0 min 65 W/m 20,9 km/h (4 Bft) 95,65 %
12.09.2017 08:24 12,4 C 12,2 C 11,7 C 96 % 13 lf 1002,7 hPa 0,0 l/m 0 min 0 min 86 W/m 18,8 km/h (3 Bft) 93,62 %
12.09.2017 08:26 12,4 C 12,2 C 11,7 C 96 % 12 lf 1002,7 hPa 0,0 l/m 0 min 0 min 88 W/m 16,7 km/h (3 Bft) 95,74 %
12.09.2017 08:28 12,4 C 12,2 C 11,7 C 96 % 12 lf 1002,7 hPa 0,0 l/m 0 min 0 min 80 W/m 16,7 km/h (3 Bft) 95,74 %
12.09.2017 08:30 12,4 C 12,2 C 11,7 C 96 % 11 lf 1002,7 hPa 0,0 l/m 0 min 0 min 82 W/m 16,7 km/h (3 Bft) 95,74 %
12.09.2017 08:32 12,4 C 12,8 C 11,7 C 96 % 10 lf 1002,7 hPa 0,0 l/m 0 min 0 min 83 W/m 16,7 km/h (3 Bft) 93,62 %
12.09.2017 08:34 12,4 C 12,2 C 11,7 C 96 % 9 lf 1002,7 hPa 0,0 l/m 0 min 0 min 85 W/m 14,6 km/h (3 Bft) 95,65 %
12.09.2017 08:36 12,4 C 12,2 C 11,7 C 96 % 7 lf 1002,8 hPa 0,0 l/m 0 min 0 min 84 W/m 18,8 km/h (3 Bft) 95,74 %
12.09.2017 08:38 12,4 C 12,2 C 11,7 C 96 % 7 lf 1002,7 hPa 0,0 l/m 0 min 0 min 75 W/m 16,7 km/h (3 Bft) 95,74 %
12.09.2017 08:40 12,5 C 12,2 C 11,1 C 96 % 4 lf 1002,8 hPa 0,0 l/m 0 min 0 min 67 W/m 20,9 km/h (4 Bft) 95,74 %
12.09.2017 08:42 12,5 C 12,2 C 11,1 C 96 % 4 lf 1002,7 hPa 0,0 l/m 0 min 0 min 76 W/m 25,1 km/h (4 Bft) 93,62 %
12.09.2017 08:44 12,5 C 12,2 C 11,1 C 96 % 3 lf 1002,8 hPa 0,0 l/m 0 min 0 min 81 W/m 20,9 km/h (4 Bft) 95,74 %
12.09.2017 08:46 12,5 C 12,2 C 11,1 C 96 % 2 lf 1002,8 hPa 0,0 l/m 0 min 0 min 89 W/m 16,7 km/h (3 Bft) 95,65 %
12.09.2017 08:48 12,5 C 13,3 C 11,7 C 96 % 1 lf 1002,9 hPa 0,0 l/m 0 min 0 min 110 W/m 23,0 km/h (4 Bft) 93,62 %
12.09.2017 08:50 12,6 C 15,0 C 11,7 C 96 % 1 lf 1003,0 hPa 0,0 l/m 2 min 2 min 250 W/m 25,1 km/h (4 Bft) 93,62 %
12.09.2017 08:52 12,6 C 15,6 C 11,7 C 96 % 2 lf 1003,0 hPa 0,0 l/m 2 min 2 min 290 W/m 16,7 km/h (3 Bft) 95,74 %
12.09.2017 08:54 12,7 C 15,6 C 12,2 C 96 % 2 lf 1003,0 hPa 0,0 l/m 2 min 0 min 283 W/m 12,6 km/h (3 Bft) 95,74 %
12.09.2017 08:56 12,7 C 14,4 C 12,2 C 96 % 1 lf 1003,0 hPa 0,0 l/m 2 min 2 min 214 W/m 25,1 km/h (4 Bft) 95,74 %
12.09.2017 08:58 12,8 C 14,4 C 12,2 C 96 % 0 lf 1003,0 hPa 0,0 l/m 2 min 0 min 177 W/m 23,0 km/h (4 Bft) 95,65 %
12.09.2017 09:00 12,8 C 14,4 C 12,2 C 96 % 0 lf 1003,0 hPa 0,0 l/m 2 min 0 min 248 W/m 23,0 km/h (4 Bft) 95,74 %
12.09.2017 09:02 12,9 C 14,4 C 11,7 C 96 % 0 lf 1003,0 hPa 0,0 l/m 0 min 0 min 121 W/m 16,7 km/h (3 Bft) 95,74 %
12.09.2017 09:04 12,9 C 13,9 C 11,7 C 96 % 0 lf 1003,0 hPa 0,0 l/m 0 min 0 min 93 W/m 18,8 km/h (3 Bft) 93,62 %
12.09.2017 09:06 12,9 C 13,9 C 11,7 C 95 % 0 lf 1003,1 hPa 0,0 l/m 0 min 0 min 116 W/m 23,0 km/h (4 Bft) 97,87 %
12.09.2017 09:08 12,9 C 14,4 C 11,7 C 95 % 0 lf 1003,1 hPa 0,0 l/m 0 min 0 min 134 W/m 18,8 km/h (3 Bft) 95,65 %
12.09.2017 09:10 12,9 C 14,4 C 11,7 C 95 % 0 lf 1003,1 hPa 0,0 l/m 0 min 0 min 108 W/m 18,8 km/h (3 Bft) 97,87 %
12.09.2017 09:12 13,0 C 14,4 C 12,2 C 95 % 0 lf 1003,3 hPa 0,0 l/m 0 min 0 min 144 W/m 23,0 km/h (4 Bft) 97,87 %
12.09.2017 09:14 13,0 C 14,4 C 12,2 C 95 % 0 lf 1003,2 hPa 0,0 l/m 0 min 0 min 106 W/m 23,0 km/h (4 Bft) 100,00 %
12.09.2017 09:16 13,0 C 13,9 C 12,2 C 95 % 0 lf 1003,3 hPa 0,0 l/m 0 min 0 min 150 W/m 27,2 km/h (4 Bft) 100,00 %
12.09.2017 09:18 13,0 C 13,9 C 12,2 C 95 % 0 lf 1003,4 hPa 0,0 l/m 0 min 0 min 90 W/m 29,3 km/h (5 Bft) 97,87 %
12.09.2017 09:20 13,1 C 13,9 C 12,2 C 95 % 0 lf 1003,4 hPa 0,0 l/m 0 min 0 min 112 W/m 20,9 km/h (4 Bft) 100,00 %
12.09.2017 09:22 13,1 C 13,9 C 12,2 C 95 % 0 lf 1003,4 hPa 0,0 l/m 0 min 0 min 63 W/m 18,8 km/h (3 Bft) 97,87 %
12.09.2017 09:24 13,1 C 13,9 C 11,7 C 95 % 0 lf 1003,4 hPa 0,0 l/m 0 min 0 min 63 W/m 25,1 km/h (4 Bft) 97,87 %
12.09.2017 09:26 13,1 C 13,9 C 11,7 C 95 % 0 lf 1003,4 hPa 0,0 l/m 0 min 0 min 93 W/m 25,1 km/h (4 Bft) 100,00 %
12.09.2017 09:28 13,1 C 13,9 C 11,7 C 95 % 0 lf 1003,5 hPa 0,0 l/m 0 min 0 min 100 W/m 20,9 km/h (4 Bft) 97,92 %
12.09.2017 09:30 13,1 C 13,9 C 12,2 C 95 % 0 lf 1003,5 hPa 0,0 l/m 0 min 0 min 95 W/m 18,8 km/h (3 Bft) 100,00 %
12.09.2017 09:32 13,1 C 13,9 C 12,2 C 94 % 0 lf 1003,4 hPa 0,0 l/m 0 min 0 min 87 W/m 23,0 km/h (4 Bft) 93,75 %
12.09.2017 09:34 13,1 C 13,9 C 12,2 C 94 % 0 lf 1003,5 hPa 0,0 l/m 0 min 0 min 81 W/m 18,8 km/h (3 Bft) 95,65 %
12.09.2017 09:36 13,1 C 13,9 C 12,2 C 94 % 0 lf 1003,6 hPa 0,0 l/m 0 min 0 min 69 W/m 25,1 km/h (4 Bft) 100,00 %
12.09.2017 09:38 13,1 C 13,3 C 12,2 C 94 % 0 lf 1003,6 hPa 0,0 l/m 0 min 0 min 74 W/m 23,0 km/h (4 Bft) 100,00 %
12.09.2017 09:40 13,1 C 13,9 C 12,2 C 94 % 0 lf 1003,6 hPa 0,0 l/m 0 min 0 min 75 W/m 23,0 km/h (4 Bft) 100,00 %
12.09.2017 09:42 13,1 C 13,9 C 11,7 C 94 % 0 lf 1003,6 hPa 0,0 l/m 0 min 0 min 69 W/m 25,1 km/h (4 Bft) 97,83 %
12.09.2017 09:44 13,2 C 13,9 C 11,7 C 94 % 0 lf 1003,6 hPa 0,0 l/m 0 min 0 min 77 W/m 25,1 km/h (4 Bft) 95,74 %
12.09.2017 09:46 13,2 C 13,9 C 12,2 C 94 % 0 lf 1003,8 hPa 0,0 l/m 0 min 0 min 115 W/m 23,0 km/h (4 Bft) 97,87 %
12.09.2017 09:48 13,2 C 14,4 C 12,2 C 94 % 0 lf 1003,7 hPa 0,0 l/m 0 min 0 min 198 W/m 20,9 km/h (4 Bft) 97,87 %
12.09.2017 09:50 13,2 C 14,4 C 12,8 C 94 % 0 lf 1003,8 hPa 0,0 l/m 0 min 0 min 173 W/m 25,1 km/h (4 Bft) 97,87 %
12.09.2017 09:52 13,2 C 15,0 C 12,8 C 94 % 0 lf 1003,8 hPa 0,0 l/m 0 min 0 min 183 W/m 14,6 km/h (3 Bft) 95,74 %
12.09.2017 09:54 13,3 C 15,6 C 12,8 C 94 % 0 lf 1003,9 hPa 0,0 l/m 2 min 0 min 207 W/m 18,8 km/h (3 Bft) 97,83 %
12.09.2017 09:56 13,4 C 16,1 C 13,3 C 94 % 0 lf 1003,9 hPa 0,0 l/m 0 min 0 min 183 W/m 23,0 km/h (4 Bft) 97,62 %
12.09.2017 09:58 13,4 C 15,6 C 12,8 C 94 % 0 lf 1004,0 hPa 0,0 l/m 0 min 0 min 157 W/m 23,0 km/h (4 Bft) 97,87 %
12.09.2017 10:00 13,4 C 15,6 C 12,8 C 94 % 0 lf 1004,0 hPa 0,0 l/m 0 min 0 min 164 W/m 20,9 km/h (4 Bft) 96,00 %
12.09.2017 10:02 13,5 C 15,0 C 12,8 C 94 % 0 lf 1004,1 hPa 0,0 l/m 0 min 0 min 187 W/m 23,0 km/h (4 Bft) 97,87 %
12.09.2017 10:04 13,5 C 15,0 C 12,8 C 94 % 0 lf 1004,1 hPa 0,0 l/m 0 min 0 min 174 W/m 27,2 km/h (4 Bft) 97,96 %
12.09.2017 10:06 13,6 C 16,1 C 13,3 C 94 % 0 lf 1004,1 hPa 0,0 l/m 0 min 0 min 207 W/m 23,0 km/h (4 Bft) 93,48 %
12.09.2017 10:08 13,7 C 16,1 C 13,3 C 93 % 0 lf 1004,1 hPa 0,0 l/m 0 min 0 min 188 W/m 23,0 km/h (4 Bft) 97,87 %
12.09.2017 10:10 13,7 C 16,1 C 12,8 C 93 % 0 lf 1004,1 hPa 0,0 l/m 0 min 0 min 180 W/m 29,3 km/h (5 Bft) 93,62 %
12.09.2017 10:12 13,7 C 16,7 C 12,8 C 93 % 0 lf 1004,2 hPa 0,0 l/m 2 min 0 min 245 W/m 25,1 km/h (4 Bft) 97,87 %
12.09.2017 10:14 13,8 C 16,7 C 12,8 C 93 % 0 lf 1004,2 hPa 0,0 l/m 2 min 0 min 242 W/m 37,7 km/h (5 Bft) 97,87 %
12.09.2017 10:16 13,8 C 17,2 C 12,8 C 93 % 0 lf 1004,2 hPa 0,0 l/m 0 min 0 min 182 W/m 35,6 km/h (5 Bft) 100,00 %
12.09.2017 10:18 13,9 C 18,3 C 13,9 C 92 % 0 lf 1004,1 hPa 0,0 l/m 2 min 0 min 361 W/m 25,1 km/h (4 Bft) 100,00 %
12.09.2017 10:20 14,0 C 18,9 C 14,4 C 92 % 0 lf 1004,2 hPa 0,0 l/m 2 min 0 min 592 W/m 27,2 km/h (4 Bft) 95,74 %
12.09.2017 10:22 14,1 C 17,8 C 13,9 C 92 % 0 lf 1004,3 hPa 0,0 l/m 2 min 0 min 443 W/m 31,4 km/h (5 Bft) 97,92 %
12.09.2017 10:24 14,2 C 16,7 C 13,3 C 92 % 0 lf 1004,3 hPa 0,0 l/m 0 min 0 min 213 W/m 20,9 km/h (4 Bft) 97,92 %
12.09.2017 10:26 14,2 C 18,3 C 14,4 C 91 % 0 lf 1004,3 hPa 0,0 l/m 2 min 0 min 297 W/m 31,4 km/h (5 Bft) 95,83 %
12.09.2017 10:28 14,2 C 16,7 C 13,9 C 91 % 0 lf 1004,4 hPa 0,0 l/m 2 min 0 min 540 W/m 27,2 km/h (4 Bft) 97,92 %
12.09.2017 10:30 14,2 C 16,7 C 13,3 C 91 % 0 lf 1004,3 hPa 0,0 l/m 0 min 0 min 207 W/m 14,6 km/h (3 Bft) 100,00 %
12.09.2017 10:32 14,2 C 16,7 C 13,9 C 90 % 0 lf 1004,4 hPa 0,0 l/m 0 min 0 min 196 W/m 29,3 km/h (5 Bft) 100,00 %
12.09.2017 10:34 14,3 C 17,8 C 13,9 C 90 % 0 lf 1004,4 hPa 0,0 l/m 2 min 0 min 332 W/m 29,3 km/h (5 Bft) 100,00 %
12.09.2017 10:36 14,3 C 18,9 C 13,9 C 90 % 0 lf 1004,4 hPa 0,0 l/m 2 min 0 min 359 W/m 18,8 km/h (3 Bft) 100,00 %
12.09.2017 10:38 14,4 C 17,2 C 13,9 C 90 % 0 lf 1004,4 hPa 0,0 l/m 0 min 0 min 214 W/m 27,2 km/h (4 Bft) 100,00 %
12.09.2017 10:40 14,4 C 17,8 C 13,9 C 89 % 0 lf 1004,4 hPa 0,0 l/m 2 min 0 min 279 W/m 31,4 km/h (5 Bft) 97,87 %
12.09.2017 10:42 14,5 C 17,8 C 13,9 C 89 % 0 lf 1004,5 hPa 0,0 l/m 2 min 0 min 261 W/m 23,0 km/h (4 Bft) 97,56 %
12.09.2017 10:44 14,6 C 16,7 C 13,3 C 89 % 0 lf 1004,5 hPa 0,0 l/m 0 min 0 min 232 W/m 31,4 km/h (5 Bft) 100,00 %
12.09.2017 10:46 14,6 C 16,7 C 13,3 C 89 % 0 lf 1004,5 hPa 0,0 l/m 0 min 0 min 219 W/m 23,0 km/h (4 Bft) 97,92 %
12.09.2017 10:48 14,6 C 17,2 C 13,9 C 89 % 0 lf 1004,5 hPa 0,0 l/m 0 min 0 min 252 W/m 25,1 km/h (4 Bft) 100,00 %
12.09.2017 10:50 14,6 C 17,2 C 13,9 C 88 % 0 lf 1004,6 hPa 0,0 l/m 0 min 0 min 249 W/m 27,2 km/h (4 Bft) 100,00 %
12.09.2017 10:52 14,6 C 17,2 C 13,9 C 88 % 0 lf 1004,5 hPa 0,0 l/m 0 min 0 min 258 W/m 20,9 km/h (4 Bft) 97,92 %
12.09.2017 10:54 14,7 C 18,9 C 14,4 C 88 % 0 lf 1004,5 hPa 0,0 l/m 2 min 0 min 310 W/m 27,2 km/h (4 Bft) 100,00 %
12.09.2017 10:56 14,8 C 18,9 C 14,4 C 89 % 0 lf 1004,5 hPa 0,0 l/m 2 min 0 min 647 W/m 29,3 km/h (5 Bft) 97,92 %
12.09.2017 10:58 14,9 C 20,0 C 15,0 C 88 % 0 lf 1004,6 hPa 0,0 l/m 0 min 0 min 239 W/m 29,3 km/h (5 Bft) 100,00 %
12.09.2017 11:00 14,9 C 21,1 C 16,1 C 88 % 0 lf 1004,6 hPa 0,0 l/m 0 min 0 min 241 W/m 18,8 km/h (3 Bft) 97,87 %
12.09.2017 11:02 15,1 C 21,1 C 16,7 C 88 % 0 lf 1004,6 hPa 0,0 l/m 2 min 0 min 570 W/m 27,2 km/h (4 Bft) 95,74 %
12.09.2017 11:04 15,1 C 21,1 C 16,7 C 87 % 0 lf 1004,5 hPa 0,0 l/m 2 min 0 min 579 W/m 33,5 km/h (5 Bft) 95,24 %
12.09.2017 11:06 15,2 C 22,8 C 17,2 C 87 % 0 lf 1004,5 hPa 0,0 l/m 2 min 0 min 580 W/m 18,8 km/h (3 Bft) 93,75 %
12.09.2017 11:08 15,3 C 23,3 C 17,8 C 87 % 0 lf 1004,6 hPa 0,0 l/m 2 min 0 min 578 W/m 25,1 km/h (4 Bft) 93,62 %
12.09.2017 11:10 15,4 C 23,3 C 17,8 C 87 % 0 lf 1004,7 hPa 0,0 l/m 2 min 0 min 584 W/m 29,3 km/h (5 Bft) 97,92 %
12.09.2017 11:12 15,5 C 23,9 C 18,3 C 86 % 0 lf 1004,7 hPa 0,0 l/m 2 min 0 min 620 W/m 31,4 km/h (5 Bft) 95,83 %
12.09.2017 11:14 15,7 C 23,9 C 18,3 C 86 % 0 lf 1004,7 hPa 0,0 l/m 2 min 0 min 646 W/m 31,4 km/h (5 Bft) 93,62 %
12.09.2017 11:16 15,8 C 23,9 C 18,3 C 86 % 0 lf 1004,8 hPa 0,0 l/m 2 min 0 min 658 W/m 35,6 km/h (5 Bft) 91,49 %
12.09.2017 11:18 15,8 C 23,3 C 18,3 C 85 % 0 lf 1004,8 hPa 0,0 l/m 2 min 0 min 663 W/m 37,7 km/h (5 Bft) 93,62 %
12.09.2017 11:20 15,9 C 23,3 C 18,9 C 85 % 0 lf 1004,8 hPa 0,0 l/m 2 min 0 min 670 W/m 39,7 km/h (6 Bft) 93,62 %
12.09.2017 11:22 16,0 C 22,8 C 18,9 C 84 % 0 lf 1004,8 hPa 0,0 l/m 2 min 0 min 746 W/m 41,8 km/h (6 Bft) 91,49 %
12.09.2017 11:24 16,1 C 21,7 C 18,9 C 83 % 0 lf 1004,8 hPa 0,0 l/m 2 min 0 min 464 W/m 25,1 km/h (4 Bft) 93,62 %
12.09.2017 11:26 16,1 C 21,7 C 19,4 C 83 % 0 lf 1004,8 hPa 0,0 l/m 2 min 0 min 470 W/m 31,4 km/h (5 Bft) 91,49 %
12.09.2017 11:28 16,2 C 22,2 C 20,6 C 82 % 0 lf 1004,7 hPa 0,0 l/m 2 min 0 min 751 W/m 31,4 km/h (5 Bft) 95,65 %
12.09.2017 11:30 16,3 C 22,2 C 20,0 C 82 % 0 lf 1004,8 hPa 0,0 l/m 2 min 0 min 740 W/m 31,4 km/h (5 Bft) 92,68 %
12.09.2017 11:32 16,3 C 21,7 C 20,0 C 81 % 0 lf 1004,8 hPa 0,0 l/m 2 min 0 min 728 W/m 33,5 km/h (5 Bft) 93,75 %
12.09.2017 11:34 16,4 C 22,2 C 20,6 C 80 % 0 lf 1004,8 hPa 0,0 l/m 2 min 0 min 671 W/m 31,4 km/h (5 Bft) 93,62 %
12.09.2017 11:36 16,4 C 21,1 C 20,6 C 80 % 0 lf 1004,8 hPa 0,0 l/m 2 min 0 min 675 W/m 37,7 km/h (5 Bft) 93,75 %
12.09.2017 11:38 16,4 C 21,1 C 20,0 C 79 % 0 lf 1004,8 hPa 0,0 l/m 2 min 0 min 679 W/m 27,2 km/h (4 Bft) 93,75 %
12.09.2017 11:40 16,4 C 22,2 C 20,0 C 79 % 0 lf 1004,8 hPa 0,0 l/m 2 min 0 min 665 W/m 35,6 km/h (5 Bft) 91,67 %
12.09.2017 11:42 16,5 C 22,8 C 20,6 C 79 % 0 lf 1004,8 hPa 0,0 l/m 2 min 0 min 653 W/m 33,5 km/h (5 Bft) 91,49 %
12.09.2017 11:44 16,5 C 23,9 C 21,1 C 79 % 0 lf 1004,8 hPa 0,0 l/m 2 min 0 min 650 W/m 27,2 km/h (4 Bft) 93,75 %
12.09.2017 11:46 16,6 C 23,3 C 21,1 C 79 % 0 lf 1004,8 hPa 0,0 l/m 2 min 0 min 652 W/m 35,6 km/h (5 Bft) 93,62 %
12.09.2017 11:48 16,6 C 22,8 C 20,0 C 79 % 0 lf 1004,8 hPa 0,0 l/m 2 min 0 min 652 W/m 39,7 km/h (6 Bft) 87,23 %
12.09.2017 11:50 16,7 C 23,3 C 20,6 C 79 % 0 lf 1004,8 hPa 0,0 l/m 2 min 0 min 683 W/m 31,4 km/h (5 Bft) 95,65 %
12.09.2017 11:52 16,7 C 21,7 C 19,4 C 78 % 0 lf 1004,8 hPa 0,0 l/m 2 min 0 min 689 W/m 41,8 km/h (6 Bft) 93,62 %
12.09.2017 11:54 16,7 C 21,7 C 19,4 C 77 % 0 lf 1004,8 hPa 0,0 l/m 2 min 0 min 428 W/m 31,4 km/h (5 Bft) 95,74 %
12.09.2017 11:56 16,7 C 21,7 C 20,0 C 78 % 0 lf 1004,8 hPa 0,0 l/m 2 min 0 min 688 W/m 39,7 km/h (6 Bft) 87,80 %
12.09.2017 11:58 16,7 C 23,3 C 20,6 C 78 % 0 lf 1004,8 hPa 0,0 l/m 2 min 0 min 776 W/m 27,2 km/h (4 Bft) 93,75 %
12.09.2017 12:00 16,8 C 24,4 C 21,1 C 79 % 0 lf 1004,8 hPa 0,0 l/m 2 min 0 min 815 W/m 29,3 km/h (5 Bft) 94,00 %
12.09.2017 12:02 16,9 C 23,9 C 21,7 C 78 % 0 lf 1004,9 hPa 0,0 l/m 2 min 0 min 852 W/m 35,6 km/h (5 Bft) 95,83 %
12.09.2017 12:04 16,9 C 21,7 C 20,0 C 76 % 0 lf 1004,9 hPa 0,0 l/m 2 min 0 min 533 W/m 41,8 km/h (6 Bft) 93,62 %
12.09.2017 12:06 16,9 C 23,3 C 21,1 C 76 % 0 lf 1004,9 hPa 0,0 l/m 2 min 0 min 625 W/m 31,4 km/h (5 Bft) 95,74 %
12.09.2017 12:10 17,0 C 23,9 C 22,2 C 76 % 0 lf 1004,9 hPa 0,0 l/m 4 min 0 min 671 W/m 37,7 km/h (5 Bft) 97,89 %
12.09.2017 12:12 17,1 C 23,3 C 21,7 C 75 % 0 lf 1004,9 hPa 0,0 l/m 2 min 0 min 673 W/m 41,8 km/h (6 Bft) 97,87 %
12.09.2017 12:14 17,1 C 23,3 C 20,6 C 75 % 0 lf 1004,9 hPa 0,0 l/m 2 min 0 min 678 W/m 37,7 km/h (5 Bft) 97,83 %
12.09.2017 12:16 17,1 C 23,3 C 21,1 C 74 % 0 lf 1004,9 hPa 0,0 l/m 2 min 0 min 669 W/m 31,4 km/h (5 Bft) 97,22 %
12.09.2017 12:18 17,2 C 23,9 C 21,7 C 75 % 0 lf 1005,0 hPa 0,0 l/m 2 min 0 min 700 W/m 37,7 km/h (5 Bft) 98,28 %
12.09.2017 12:20 17,2 C 25,0 C 22,8 C 75 % 0 lf 1004,9 hPa 0,0 l/m 2 min 0 min 781 W/m 31,4 km/h (5 Bft) 95,12 %
12.09.2017 12:22 17,4 C 24,4 C 22,8 C 76 % 0 lf 1005,0 hPa 0,0 l/m 2 min 0 min 842 W/m 31,4 km/h (5 Bft) 97,92 %
12.09.2017 12:24 17,4 C 25,0 C 23,3 C 75 % 0 lf 1005,0 hPa 0,0 l/m 2 min 0 min 853 W/m 27,2 km/h (4 Bft) 97,92 %
12.09.2017 12:26 17,6 C 25,0 C 23,3 C 75 % 0 lf 1005,0 hPa 0,0 l/m 2 min 0 min 872 W/m 35,6 km/h (5 Bft) 97,22 %
12.09.2017 12:28 17,6 C 25,0 C 23,3 C 75 % 0 lf 1005,0 hPa 0,0 l/m 2 min 0 min 878 W/m 35,6 km/h (5 Bft) 98,31 %
12.09.2017 12:30 17,7 C 25,0 C 23,3 C 75 % 0 lf 1005,0 hPa 0,0 l/m 2 min 0 min 886 W/m 29,3 km/h (5 Bft) 97,30 %
12.09.2017 12:32 17,8 C 24,4 C 23,3 C 75 % 0 lf 1005,0 hPa 0,0 l/m 2 min 0 min 864 W/m 31,4 km/h (5 Bft) 98,31 %
12.09.2017 12:34 17,8 C 23,9 C 22,2 C 74 % 0 lf 1005,1 hPa 0,0 l/m 2 min 0 min 656 W/m 31,4 km/h (5 Bft) 100,00 %
12.09.2017 12:36 17,8 C 21,7 C 20,6 C 73 % 0 lf 1005,1 hPa 0,0 l/m 2 min 0 min 439 W/m 35,6 km/h (5 Bft) 98,31 %
12.09.2017 12:38 17,7 C 20,0 C 19,4 C 73 % 0 lf 1005,1 hPa 0,0 l/m 0 min 0 min 215 W/m 31,4 km/h (5 Bft) 100,00 %
12.09.2017 12:40 17,6 C 18,3 C 18,3 C 73 % 0 lf 1005,2 hPa 0,0 l/m 0 min 0 min 200 W/m 35,6 km/h (5 Bft) 98,28 %
12.09.2017 12:42 17,5 C 18,3 C 17,2 C 74 % 2 lf 1005,3 hPa 0,0 l/m 0 min 2 min 194 W/m 20,9 km/h (4 Bft) 100,00 %
12.09.2017 12:44 17,4 C 17,8 C 16,1 C 75 % 11 lf 1005,4 hPa 0,0 l/m 0 min 2 min 232 W/m 27,2 km/h (4 Bft) 97,87 %
12.09.2017 12:46 17,4 C 20,0 C 16,7 C 76 % 15 lf 1005,4 hPa 0,0 l/m 0 min 2 min 246 W/m 12,6 km/h (3 Bft) 100,00 %
12.09.2017 12:48 17,3 C 20,0 C 15,6 C 77 % 13 lf 1005,4 hPa 0,0 l/m 0 min 2 min 303 W/m 20,9 km/h (4 Bft) 100,00 %
12.09.2017 12:50 17,3 C 18,9 C 15,0 C 77 % 6 lf 1005,3 hPa 0,0 l/m 0 min 0 min 270 W/m 23,0 km/h (4 Bft) 100,00 %
12.09.2017 12:52 17,1 C 18,3 C 14,4 C 77 % 2 lf 1005,4 hPa 0,0 l/m 0 min 2 min 115 W/m 20,9 km/h (4 Bft) 100,00 %
12.09.2017 12:54 17,0 C 17,8 C 14,4 C 77 % 0 lf 1005,4 hPa 0,0 l/m 0 min 0 min 107 W/m 23,0 km/h (4 Bft) 100,00 %
12.09.2017 12:56 16,8 C 18,9 C 14,4 C 77 % 0 lf 1005,4 hPa 0,0 l/m 0 min 0 min 109 W/m 14,6 km/h (3 Bft) 98,33 %
12.09.2017 12:58 16,8 C 22,2 C 15,6 C 78 % 0 lf 1005,4 hPa 0,0 l/m 2 min 0 min 511 W/m 20,9 km/h (4 Bft) 100,00 %
12.09.2017 13:00 16,8 C 23,9 C 16,7 C 79 % 0 lf 1005,5 hPa 0,0 l/m 2 min 0 min 708 W/m 14,6 km/h (3 Bft) 100,00 %
12.09.2017 13:02 16,9 C 25,6 C 17,2 C 79 % 0 lf 1005,5 hPa 0,0 l/m 2 min 0 min 710 W/m 16,7 km/h (3 Bft) 100,00 %
12.09.2017 13:04 17,1 C 26,1 C 17,8 C 80 % 0 lf 1005,5 hPa 0,0 l/m 2 min 0 min 728 W/m 16,7 km/h (3 Bft) 100,00 %
12.09.2017 13:06 17,1 C 23,9 C 17,8 C 79 % 0 lf 1005,4 hPa 0,0 l/m 0 min 0 min 263 W/m 25,1 km/h (4 Bft) 100,00 %
12.09.2017 13:08 17,2 C 21,7 C 17,8 C 79 % 0 lf 1005,4 hPa 0,0 l/m 0 min 0 min 169 W/m 23,0 km/h (4 Bft) 100,00 %
12.09.2017 13:10 17,2 C 20,0 C 17,2 C 78 % 0 lf 1005,5 hPa 0,0 l/m 0 min 0 min 168 W/m 23,0 km/h (4 Bft) 97,87 %
12.09.2017 13:12 17,2 C 18,3 C 16,7 C 76 % 3 lf 1005,5 hPa 0,0 l/m 0 min 0 min 142 W/m 25,1 km/h (4 Bft) 100,00 %
12.09.2017 13:14 17,1 C 16,7 C 15,0 C 76 % 15 lf 1005,6 hPa 0,0 l/m 0 min 2 min 108 W/m 27,2 km/h (4 Bft) 97,87 %
12.09.2017 13:16 17,1 C 15,6 C 13,9 C 78 % 15 lf 1005,7 hPa 0,2 l/m 0 min 2 min 85 W/m 27,2 km/h (4 Bft) 100,00 %
12.09.2017 13:18 16,9 C 13,9 C 13,3 C 79 % 15 lf 1005,8 hPa 0,4 l/m 0 min 2 min 103 W/m 31,4 km/h (5 Bft) 97,30 %
12.09.2017 13:20 16,8 C 13,9 C 13,3 C 80 % 15 lf 1005,8 hPa 0,2 l/m 0 min 2 min 190 W/m 18,8 km/h (3 Bft) 100,00 %
12.09.2017 13:22 16,7 C 17,2 C 14,4 C 82 % 15 lf 1005,8 hPa 0,0 l/m 2 min 2 min 383 W/m 18,8 km/h (3 Bft) 100,00 %
12.09.2017 13:24 16,7 C 18,3 C 15,0 C 84 % 15 lf 1005,7 hPa 0,0 l/m 2 min 2 min 783 W/m 12,6 km/h (3 Bft) 97,14 %
12.09.2017 13:26 16,7 C 20,6 C 15,0 C 84 % 15 lf 1005,7 hPa 0,0 l/m 2 min 0 min 715 W/m 12,6 km/h (3 Bft) 97,92 %
12.09.2017 13:28 16,8 C 21,7 C 15,0 C 85 % 15 lf 1005,7 hPa 0,0 l/m 2 min 0 min 705 W/m 10,5 km/h (2 Bft) 100,00 %
12.09.2017 13:30 16,8 C 18,3 C 15,0 C 85 % 15 lf 1005,7 hPa 0,0 l/m 2 min 0 min 476 W/m 16,7 km/h (3 Bft) 100,00 %
12.09.2017 13:32 16,8 C 16,7 C 14,4 C 84 % 15 lf 1005,6 hPa 0,0 l/m 0 min 0 min 162 W/m 23,0 km/h (4 Bft) 100,00 %
12.09.2017 13:34 16,7 C 16,1 C 14,4 C 83 % 15 lf 1005,6 hPa 0,0 l/m 0 min 0 min 143 W/m 16,7 km/h (3 Bft) 100,00 %
12.09.2017 13:36 16,7 C 15,6 C 14,4 C 83 % 15 lf 1005,7 hPa 0,0 l/m 0 min 0 min 136 W/m 12,6 km/h (3 Bft) 97,83 %
12.09.2017 13:38 16,6 C 15,0 C 14,4 C 82 % 15 lf 1005,7 hPa 0,0 l/m 0 min 0 min 123 W/m 16,7 km/h (3 Bft) 97,87 %
12.09.2017 13:40 16,5 C 15,0 C 13,9 C 82 % 15 lf 1005,8 hPa 0,0 l/m 0 min 0 min 112 W/m 20,9 km/h (4 Bft) 97,14 %
12.09.2017 13:42 16,4 C 14,4 C 13,9 C 82 % 15 lf 1005,8 hPa 0,0 l/m 0 min 0 min 98 W/m 39,7 km/h (6 Bft) 100,00 %
12.09.2017 13:44 16,3 C 13,9 C 12,8 C 81 % 15 lf 1006,0 hPa 0,0 l/m 0 min 2 min 78 W/m 43,9 km/h (6 Bft) 100,00 %
12.09.2017 13:46 16,0 C 12,8 C 12,2 C 81 % 15 lf 1006,0 hPa 0,2 l/m 0 min 2 min 65 W/m 33,5 km/h (5 Bft) 100,00 %
12.09.2017 13:48 15,8 C 12,2 C 11,7 C 80 % 15 lf 1006,0 hPa 0,2 l/m 0 min 2 min 70 W/m 23,0 km/h (4 Bft) 97,22 %
12.09.2017 13:50 15,6 C 12,2 C 11,7 C 81 % 15 lf 1005,9 hPa 0,0 l/m 0 min 2 min 94 W/m 18,8 km/h (3 Bft) 96,61 %
12.09.2017 13:52 15,4 C 13,3 C 11,7 C 81 % 15 lf 1005,9 hPa 0,0 l/m 0 min 2 min 149 W/m 18,8 km/h (3 Bft) 94,59 %
12.09.2017 13:54 15,3 C 12,8 C 12,2 C 81 % 15 lf 1005,9 hPa 0,0 l/m 0 min 0 min 122 W/m 16,7 km/h (3 Bft) 94,92 %
12.09.2017 13:56 15,2 C 12,8 C 12,2 C 82 % 15 lf 1006,0 hPa 0,0 l/m 0 min 0 min 90 W/m 14,6 km/h (3 Bft) 93,75 %
12.09.2017 13:58 15,1 C 12,8 C 12,2 C 82 % 15 lf 1006,0 hPa 0,0 l/m 0 min 0 min 88 W/m 10,5 km/h (2 Bft) 93,62 %
12.09.2017 14:00 14,9 C 12,8 C 12,2 C 83 % 15 lf 1006,0 hPa 0,0 l/m 0 min 0 min 90 W/m 16,7 km/h (3 Bft) 95,65 %
12.09.2017 14:02 14,8 C 12,8 C 12,2 C 83 % 15 lf 1006,1 hPa 0,0 l/m 0 min 2 min 106 W/m 16,7 km/h (3 Bft) 95,24 %
12.09.2017 14:04 14,8 C 13,9 C 12,8 C 84 % 15 lf 1006,1 hPa 0,0 l/m 0 min 2 min 148 W/m 18,8 km/h (3 Bft) 92,00 %
12.09.2017 14:06 14,8 C 14,4 C 12,8 C 85 % 15 lf 1006,1 hPa 0,0 l/m 0 min 0 min 304 W/m 20,9 km/h (4 Bft) 93,75 %
12.09.2017 14:08 14,8 C 14,4 C 13,3 C 85 % 15 lf 1006,2 hPa 0,0 l/m 0 min 0 min 174 W/m 14,6 km/h (3 Bft) 93,75 %
12.09.2017 14:10 14,7 C 14,4 C 13,3 C 85 % 15 lf 1006,3 hPa 0,0 l/m 0 min 0 min 168 W/m 12,6 km/h (3 Bft) 93,48 %
12.09.2017 14:12 14,7 C 14,4 C 13,3 C 86 % 15 lf 1006,3 hPa 0,0 l/m 0 min 0 min 194 W/m 18,8 km/h (3 Bft) 93,62 %
12.09.2017 14:14 14,7 C 14,4 C 13,9 C 86 % 15 lf 1006,3 hPa 0,0 l/m 0 min 0 min 227 W/m 20,9 km/h (4 Bft) 91,49 %
12.09.2017 14:16 14,7 C 15,0 C 13,9 C 87 % 15 lf 1006,4 hPa 0,0 l/m 0 min 0 min 206 W/m 14,6 km/h (3 Bft) 91,49 %
12.09.2017 14:18 14,7 C 14,4 C 13,9 C 87 % 15 lf 1006,4 hPa 0,0 l/m 0 min 0 min 169 W/m 20,9 km/h (4 Bft) 91,49 %
12.09.2017 14:20 14,7 C 14,4 C 13,9 C 87 % 15 lf 1006,4 hPa 0,0 l/m 0 min 0 min 160 W/m 20,9 km/h (4 Bft) 93,62 %
12.09.2017 14:22 14,7 C 14,4 C 13,9 C 87 % 15 lf 1006,4 hPa 0,0 l/m 0 min 0 min 149 W/m 18,8 km/h (3 Bft) 90,24 %
12.09.2017 14:24 14,7 C 13,9 C 13,3 C 87 % 15 lf 1006,4 hPa 0,0 l/m 0 min 0 min 138 W/m 25,1 km/h (4 Bft) 89,36 %
12.09.2017 14:26 14,7 C 13,9 C 13,3 C 87 % 15 lf 1006,5 hPa 0,0 l/m 0 min 0 min 119 W/m 20,9 km/h (4 Bft) 91,67 %
12.09.2017 14:28 14,6 C 13,3 C 12,8 C 87 % 15 lf 1006,5 hPa 0,0 l/m 0 min 2 min 102 W/m 31,4 km/h (5 Bft) 93,22 %
12.09.2017 14:30 14,6 C 12,8 C 12,2 C 87 % 15 lf 1006,5 hPa 0,0 l/m 0 min 2 min 86 W/m 37,7 km/h (5 Bft) 91,30 %
12.09.2017 14:32 14,4 C 12,8 C 12,2 C 86 % 15 lf 1006,5 hPa 0,0 l/m 0 min 2 min 84 W/m 20,9 km/h (4 Bft) 91,49 %
12.09.2017 14:34 14,3 C 12,2 C 11,7 C 85 % 15 lf 1006,5 hPa 0,0 l/m 0 min 2 min 91 W/m 29,3 km/h (5 Bft) 89,36 %
12.09.2017 14:36 14,2 C 12,2 C 11,7 C 85 % 15 lf 1006,4 hPa 0,0 l/m 0 min 2 min 112 W/m 33,5 km/h (5 Bft) 91,30 %
12.09.2017 14:38 14,2 C 12,2 C 11,7 C 85 % 15 lf 1006,5 hPa 0,0 l/m 0 min 2 min 125 W/m 39,7 km/h (6 Bft) 91,49 %
12.09.2017 14:40 14,1 C 12,2 C 11,7 C 85 % 15 lf 1006,5 hPa 0,0 l/m 0 min 2 min 131 W/m 35,6 km/h (5 Bft) 90,24 %
12.09.2017 14:42 13,9 C 12,2 C 11,7 C 85 % 15 lf 1006,5 hPa 0,0 l/m 0 min 2 min 128 W/m 35,6 km/h (5 Bft) 89,58 %
12.09.2017 14:44 13,8 C 12,2 C 11,7 C 85 % 15 lf 1006,6 hPa 0,0 l/m 0 min 2 min 122 W/m 31,4 km/h (5 Bft) 91,49 %
12.09.2017 14:46 13,8 C 12,2 C 11,7 C 85 % 15 lf 1006,6 hPa 0,0 l/m 0 min 2 min 120 W/m 27,2 km/h (4 Bft) 95,83 %
12.09.2017 14:48 13,7 C 12,2 C 11,7 C 85 % 15 lf 1006,5 hPa 0,0 l/m 0 min 2 min 124 W/m 23,0 km/h (4 Bft) 93,75 %
12.09.2017 14:50 13,7 C 12,2 C 11,7 C 85 % 15 lf 1006,4 hPa 0,2 l/m 0 min 2 min 139 W/m 27,2 km/h (4 Bft) 97,87 %
12.09.2017 14:52 13,6 C 12,2 C 11,7 C 86 % 15 lf 1006,4 hPa 0,2 l/m 0 min 2 min 208 W/m 23,0 km/h (4 Bft) 93,75 %
12.09.2017 14:54 13,6 C 13,3 C 12,2 C 86 % 15 lf 1006,4 hPa 0,0 l/m 2 min 2 min 345 W/m 25,1 km/h (4 Bft) 97,87 %
12.09.2017 14:56 13,6 C 16,1 C 12,8 C 87 % 15 lf 1006,4 hPa 0,0 l/m 2 min 2 min 504 W/m 16,7 km/h (3 Bft) 97,92 %
12.09.2017 14:58 13,7 C 17,8 C 13,3 C 88 % 15 lf 1006,4 hPa 0,0 l/m 2 min 2 min 722 W/m 18,8 km/h (3 Bft) 100,00 %
12.09.2017 15:00 13,8 C 18,9 C 13,9 C 88 % 15 lf 1006,3 hPa 0,0 l/m 2 min 0 min 723 W/m 16,7 km/h (3 Bft) 93,62 %
12.09.2017 15:02 14,1 C 18,9 C 13,9 C 89 % 15 lf 1006,3 hPa 0,0 l/m 2 min 0 min 707 W/m 20,9 km/h (4 Bft) 97,62 %
12.09.2017 15:04 14,2 C 18,3 C 13,9 C 89 % 15 lf 1006,4 hPa 0,0 l/m 2 min 0 min 647 W/m 20,9 km/h (4 Bft) 97,87 %
12.09.2017 15:06 14,2 C 20,6 C 13,9 C 89 % 15 lf 1006,4 hPa 0,0 l/m 2 min 0 min 623 W/m 18,8 km/h (3 Bft) 100,00 %
12.09.2017 15:08 14,2 C 20,6 C 13,9 C 88 % 15 lf 1006,4 hPa 0,0 l/m 2 min 0 min 608 W/m 25,1 km/h (4 Bft) 100,00 %
12.09.2017 15:10 14,4 C 21,1 C 14,4 C 88 % 14 lf 1006,4 hPa 0,0 l/m 2 min 0 min 596 W/m 20,9 km/h (4 Bft) 100,00 %
12.09.2017 15:12 14,5 C 22,2 C 15,0 C 88 % 12 lf 1006,4 hPa 0,0 l/m 2 min 0 min 594 W/m 16,7 km/h (3 Bft) 100,00 %
12.09.2017 15:14 14,7 C 23,3 C 15,0 C 88 % 9 lf 1006,4 hPa 0,0 l/m 2 min 0 min 593 W/m 10,5 km/h (2 Bft) 100,00 %
12.09.2017 15:16 14,8 C 22,8 C 14,4 C 88 % 3 lf 1006,4 hPa 0,0 l/m 2 min 0 min 581 W/m 23,0 km/h (4 Bft) 97,92 %
12.09.2017 15:18 14,9 C 23,3 C 13,9 C 87 % 1 lf 1006,5 hPa 0,0 l/m 2 min 0 min 581 W/m 16,7 km/h (3 Bft) 97,87 %
12.09.2017 15:20 15,1 C 22,8 C 13,9 C 87 % 0 lf 1006,4 hPa 0,0 l/m 2 min 0 min 585 W/m 20,9 km/h (4 Bft) 100,00 %
12.09.2017 15:22 15,2 C 22,8 C 13,9 C 87 % 0 lf 1006,5 hPa 0,0 l/m 2 min 0 min 581 W/m 16,7 km/h (3 Bft) 100,00 %
12.09.2017 15:24 15,4 C 23,3 C 13,9 C 86 % 0 lf 1006,4 hPa 0,0 l/m 2 min 0 min 576 W/m 20,9 km/h (4 Bft) 97,87 %
12.09.2017 15:26 15,5 C 23,9 C 13,9 C 86 % 0 lf 1006,5 hPa 0,0 l/m 2 min 0 min 578 W/m 25,1 km/h (4 Bft) 97,87 %
12.09.2017 15:28 15,7 C 23,9 C 13,9 C 85 % 0 lf 1006,4 hPa 0,0 l/m 2 min 0 min 577 W/m 16,7 km/h (3 Bft) 97,87 %
12.09.2017 15:30 15,8 C 23,9 C 13,9 C 85 % 0 lf 1006,5 hPa 0,0 l/m 2 min 0 min 571 W/m 20,9 km/h (4 Bft) 95,12 %
12.09.2017 15:32 16,0 C 23,9 C 14,4 C 85 % 0 lf 1006,4 hPa 0,0 l/m 2 min 0 min 572 W/m 18,8 km/h (3 Bft) 100,00 %
12.09.2017 15:34 16,1 C 22,2 C 13,9 C 84 % 0 lf 1006,4 hPa 0,0 l/m 2 min 0 min 568 W/m 20,9 km/h (4 Bft) 100,00 %
12.09.2017 15:36 16,2 C 22,2 C 14,4 C 83 % 0 lf 1006,5 hPa 0,0 l/m 2 min 0 min 568 W/m 18,8 km/h (3 Bft) 100,00 %
12.09.2017 15:38 16,3 C 21,7 C 13,9 C 82 % 0 lf 1006,4 hPa 0,0 l/m 2 min 0 min 567 W/m 27,2 km/h (4 Bft) 100,00 %
12.09.2017 15:40 16,4 C 21,7 C 13,9 C 81 % 0 lf 1006,5 hPa 0,0 l/m 2 min 0 min 563 W/m 27,2 km/h (4 Bft) 100,00 %
12.09.2017 15:42 16,6 C 22,2 C 13,9 C 81 % 0 lf 1006,6 hPa 0,0 l/m 2 min 0 min 559 W/m 20,9 km/h (4 Bft) 100,00 %
12.09.2017 15:44 16,7 C 22,8 C 14,4 C 82 % 0 lf 1006,5 hPa 0,0 l/m 2 min 0 min 557 W/m 18,8 km/h (3 Bft) 97,87 %
12.09.2017 15:46 16,8 C 23,3 C 14,4 C 81 % 0 lf 1006,6 hPa 0,0 l/m 2 min 0 min 555 W/m 27,2 km/h (4 Bft) 100,00 %
12.09.2017 15:48 16,9 C 22,2 C 14,4 C 80 % 0 lf 1006,5 hPa 0,0 l/m 2 min 0 min 562 W/m 31,4 km/h (5 Bft) 100,00 %
12.09.2017 15:50 16,9 C 22,8 C 14,4 C 80 % 0 lf 1006,5 hPa 0,0 l/m 2 min 0 min 563 W/m 20,9 km/h (4 Bft) 100,00 %
12.09.2017 15:52 17,0 C 23,3 C 14,4 C 80 % 0 lf 1006,6 hPa 0,0 l/m 2 min 0 min 556 W/m 31,4 km/h (5 Bft) 100,00 %
12.09.2017 15:54 17,1 C 23,9 C 14,4 C 80 % 0 lf 1006,6 hPa 0,0 l/m 2 min 0 min 549 W/m 25,1 km/h (4 Bft) 100,00 %
12.09.2017 15:56 17,2 C 23,3 C 14,4 C 79 % 0 lf 1006,6 hPa 0,0 l/m 2 min 0 min 542 W/m 23,0 km/h (4 Bft) 100,00 %
12.09.2017 15:58 17,2 C 22,8 C 14,4 C 78 % 0 lf 1006,5 hPa 0,0 l/m 2 min 0 min 544 W/m 29,3 km/h (5 Bft) 97,87 %
12.09.2017 16:00 17,3 C 22,2 C 14,4 C 78 % 0 lf 1006,7 hPa 0,0 l/m 2 min 0 min 545 W/m 33,5 km/h (5 Bft) 100,00 %
12.09.2017 16:02 17,3 C 22,2 C 14,4 C 78 % 0 lf 1006,6 hPa 0,0 l/m 2 min 0 min 550 W/m 37,7 km/h (5 Bft) 100,00 %
12.09.2017 16:04 17,3 C 22,2 C 14,4 C 78 % 0 lf 1006,6 hPa 0,0 l/m 2 min 0 min 542 W/m 31,4 km/h (5 Bft) 100,00 %
12.09.2017 16:06 17,3 C 21,7 C 14,4 C 78 % 0 lf 1006,7 hPa 0,0 l/m 2 min 0 min 494 W/m 29,3 km/h (5 Bft) 97,87 %
12.09.2017 16:08 17,3 C 21,1 C 13,9 C 77 % 0 lf 1006,6 hPa 0,0 l/m 2 min 0 min 444 W/m 29,3 km/h (5 Bft) 100,00 %
12.09.2017 16:10 17,3 C 21,1 C 14,4 C 77 % 0 lf 1006,7 hPa 0,0 l/m 2 min 0 min 438 W/m 29,3 km/h (5 Bft) 95,74 %
12.09.2017 16:12 17,3 C 21,7 C 14,4 C 77 % 0 lf 1006,6 hPa 0,0 l/m 2 min 0 min 408 W/m 18,8 km/h (3 Bft) 100,00 %
12.09.2017 16:14 17,4 C 22,2 C 14,4 C 78 % 0 lf 1006,7 hPa 0,0 l/m 2 min 0 min 472 W/m 14,6 km/h (3 Bft) 100,00 %
12.09.2017 16:16 17,4 C 21,7 C 14,4 C 78 % 0 lf 1006,8 hPa 0,0 l/m 2 min 0 min 458 W/m 25,1 km/h (4 Bft) 97,87 %
12.09.2017 16:18 17,4 C 21,1 C 14,4 C 77 % 0 lf 1006,8 hPa 0,0 l/m 2 min 0 min 470 W/m 25,1 km/h (4 Bft) 97,87 %
12.09.2017 16:20 17,4 C 22,2 C 14,4 C 77 % 0 lf 1006,8 hPa 0,0 l/m 2 min 0 min 504 W/m 16,7 km/h (3 Bft) 97,87 %
12.09.2017 16:22 17,4 C 21,1 C 14,4 C 77 % 0 lf 1006,9 hPa 0,0 l/m 2 min 0 min 497 W/m 25,1 km/h (4 Bft) 100,00 %
12.09.2017 16:24 17,4 C 21,7 C 14,4 C 76 % 0 lf 1006,8 hPa 0,0 l/m 2 min 0 min 492 W/m 23,0 km/h (4 Bft) 100,00 %
12.09.2017 16:26 17,4 C 22,2 C 14,4 C 76 % 0 lf 1006,9 hPa 0,0 l/m 2 min 0 min 481 W/m 20,9 km/h (4 Bft) 97,87 %
12.09.2017 16:28 17,5 C 22,2 C 14,4 C 77 % 0 lf 1007,0 hPa 0,0 l/m 2 min 0 min 473 W/m 14,6 km/h (3 Bft) 100,00 %
12.09.2017 16:30 17,5 C 21,1 C 14,4 C 77 % 0 lf 1006,9 hPa 0,0 l/m 2 min 0 min 482 W/m 27,2 km/h (4 Bft) 97,87 %
12.09.2017 16:32 17,6 C 21,7 C 14,4 C 77 % 0 lf 1006,9 hPa 0,0 l/m 2 min 0 min 473 W/m 20,9 km/h (4 Bft) 93,62 %
12.09.2017 16:34 17,6 C 20,6 C 14,4 C 76 % 0 lf 1007,0 hPa 0,0 l/m 2 min 0 min 471 W/m 25,1 km/h (4 Bft) 97,87 %
12.09.2017 16:36 17,6 C 21,1 C 14,4 C 77 % 0 lf 1006,9 hPa 0,0 l/m 2 min 0 min 466 W/m 16,7 km/h (3 Bft) 100,00 %
12.09.2017 16:38 17,6 C 20,6 C 14,4 C 76 % 0 lf 1007,0 hPa 0,0 l/m 2 min 0 min 457 W/m 23,0 km/h (4 Bft) 95,74 %
12.09.2017 16:40 17,6 C 21,1 C 14,4 C 76 % 0 lf 1007,0 hPa 0,0 l/m 2 min 0 min 445 W/m 18,8 km/h (3 Bft) 93,62 %
12.09.2017 16:42 17,7 C 21,1 C 14,4 C 76 % 0 lf 1007,0 hPa 0,0 l/m 2 min 0 min 433 W/m 20,9 km/h (4 Bft) 95,74 %
12.09.2017 16:44 17,7 C 21,1 C 14,4 C 76 % 0 lf 1007,0 hPa 0,0 l/m 2 min 0 min 441 W/m 18,8 km/h (3 Bft) 95,74 %
12.09.2017 16:46 17,7 C 21,1 C 14,4 C 77 % 0 lf 1007,1 hPa 0,0 l/m 2 min 0 min 448 W/m 20,9 km/h (4 Bft) 95,74 %
12.09.2017 16:48 17,7 C 21,1 C 14,4 C 77 % 0 lf 1007,1 hPa 0,0 l/m 2 min 0 min 435 W/m 23,0 km/h (4 Bft) 95,65 %
12.09.2017 16:50 17,8 C 21,1 C 14,4 C 76 % 0 lf 1007,1 hPa 0,0 l/m 2 min 0 min 432 W/m 16,7 km/h (3 Bft) 93,62 %
12.09.2017 16:52 17,8 C 19,4 C 14,4 C 76 % 0 lf 1007,0 hPa 0,0 l/m 2 min 0 min 434 W/m 20,9 km/h (4 Bft) 95,74 %
12.09.2017 16:54 17,8 C 19,4 C 14,4 C 75 % 0 lf 1007,1 hPa 0,0 l/m 2 min 0 min 433 W/m 29,3 km/h (5 Bft) 95,74 %
12.09.2017 16:56 17,8 C 19,4 C 14,4 C 74 % 0 lf 1007,1 hPa 0,0 l/m 2 min 0 min 451 W/m 27,2 km/h (4 Bft) 91,49 %
12.09.2017 16:58 17,8 C 19,4 C 14,4 C 74 % 0 lf 1007,1 hPa 0,0 l/m 2 min 0 min 456 W/m 23,0 km/h (4 Bft) 91,49 %
12.09.2017 17:00 17,8 C 18,3 C 14,4 C 74 % 0 lf 1007,1 hPa 0,0 l/m 2 min 0 min 324 W/m 18,8 km/h (3 Bft) 95,65 %
12.09.2017 17:02 17,7 C 17,8 C 14,4 C 74 % 0 lf 1007,1 hPa 0,0 l/m 0 min 0 min 146 W/m 18,8 km/h (3 Bft) 91,49 %
12.09.2017 17:04 17,7 C 18,3 C 14,4 C 75 % 0 lf 1007,1 hPa 0,0 l/m 2 min 0 min 221 W/m 16,7 km/h (3 Bft) 93,62 %
12.09.2017 17:06 17,7 C 18,3 C 14,4 C 75 % 0 lf 1007,0 hPa 0,0 l/m 2 min 0 min 434 W/m 14,6 km/h (3 Bft) 91,49 %
12.09.2017 17:08 17,7 C 18,9 C 14,4 C 76 % 0 lf 1007,0 hPa 0,0 l/m 2 min 0 min 415 W/m 16,7 km/h (3 Bft) 95,74 %
12.09.2017 17:10 17,8 C 18,3 C 14,4 C 76 % 0 lf 1007,0 hPa 0,0 l/m 2 min 0 min 393 W/m 20,9 km/h (4 Bft) 95,74 %
12.09.2017 17:12 17,8 C 18,3 C 14,4 C 75 % 0 lf 1007,0 hPa 0,0 l/m 0 min 0 min 162 W/m 16,7 km/h (3 Bft) 91,30 %
12.09.2017 17:14 17,7 C 18,3 C 15,0 C 74 % 0 lf 1007,1 hPa 0,0 l/m 0 min 0 min 175 W/m 14,6 km/h (3 Bft) 91,49 %
12.09.2017 17:16 17,7 C 18,3 C 15,0 C 75 % 0 lf 1007,0 hPa 0,0 l/m 2 min 0 min 241 W/m 10,5 km/h (2 Bft) 95,74 %
12.09.2017 17:18 17,8 C 18,3 C 15,6 C 75 % 0 lf 1007,0 hPa 0,0 l/m 2 min 0 min 281 W/m 16,7 km/h (3 Bft) 93,62 %
12.09.2017 17:20 17,8 C 18,3 C 15,6 C 75 % 0 lf 1007,0 hPa 0,0 l/m 2 min 0 min 319 W/m 23,0 km/h (4 Bft) 91,49 %
12.09.2017 17:22 17,8 C 18,9 C 15,6 C 74 % 0 lf 1007,1 hPa 0,0 l/m 2 min 0 min 417 W/m 16,7 km/h (3 Bft) 95,74 %
12.09.2017 17:24 17,8 C 18,3 C 15,6 C 74 % 0 lf 1007,1 hPa 0,0 l/m 2 min 0 min 201 W/m 18,8 km/h (3 Bft) 95,65 %
12.09.2017 17:26 17,8 C 18,9 C 15,6 C 73 % 0 lf 1007,1 hPa 0,0 l/m 2 min 0 min 290 W/m 16,7 km/h (3 Bft) 95,74 %
12.09.2017 17:28 17,9 C 18,9 C 15,6 C 73 % 0 lf 1007,1 hPa 0,0 l/m 2 min 0 min 367 W/m 12,6 km/h (3 Bft) 93,62 %
12.09.2017 17:30 17,9 C 18,9 C 16,1 C 73 % 0 lf 1007,1 hPa 0,0 l/m 2 min 0 min 279 W/m 25,1 km/h (4 Bft) 95,74 %
12.09.2017 17:32 17,9 C 18,3 C 16,1 C 73 % 0 lf 1007,1 hPa 0,0 l/m 2 min 0 min 245 W/m 18,8 km/h (3 Bft) 93,62 %
12.09.2017 17:34 17,9 C 17,8 C 16,1 C 73 % 0 lf 1007,1 hPa 0,0 l/m 0 min 0 min 149 W/m 16,7 km/h (3 Bft) 91,30 %
12.09.2017 17:36 17,9 C 17,8 C 16,1 C 73 % 0 lf 1007,2 hPa 0,0 l/m 0 min 0 min 139 W/m 23,0 km/h (4 Bft) 95,74 %
12.09.2017 17:38 17,9 C 17,8 C 15,6 C 73 % 0 lf 1007,2 hPa 0,0 l/m 0 min 0 min 131 W/m 16,7 km/h (3 Bft) 95,74 %
12.09.2017 17:40 17,8 C 17,8 C 16,1 C 72 % 0 lf 1007,2 hPa 0,0 l/m 2 min 0 min 207 W/m 27,2 km/h (4 Bft) 93,62 %
12.09.2017 17:42 17,8 C 17,8 C 16,1 C 71 % 0 lf 1007,2 hPa 0,0 l/m 2 min 0 min 325 W/m 25,1 km/h (4 Bft) 95,74 %
12.09.2017 17:44 17,7 C 17,8 C 15,6 C 70 % 0 lf 1007,2 hPa 0,0 l/m 2 min 0 min 296 W/m 16,7 km/h (3 Bft) 93,62 %
12.09.2017 17:46 17,7 C 17,8 C 15,6 C 70 % 0 lf 1007,2 hPa 0,0 l/m 2 min 0 min 280 W/m 18,8 km/h (3 Bft) 95,65 %
12.09.2017 17:48 17,7 C 18,3 C 15,6 C 70 % 0 lf 1007,1 hPa 0,0 l/m 2 min 0 min 272 W/m 18,8 km/h (3 Bft) 97,87 %
12.09.2017 17:50 17,7 C 18,3 C 15,6 C 71 % 0 lf 1007,2 hPa 0,0 l/m 2 min 0 min 263 W/m 18,8 km/h (3 Bft) 95,74 %
12.09.2017 17:52 17,7 C 18,3 C 15,6 C 70 % 0 lf 1007,2 hPa 0,0 l/m 2 min 0 min 255 W/m 23,0 km/h (4 Bft) 97,87 %
12.09.2017 17:54 17,7 C 17,8 C 15,6 C 70 % 0 lf 1007,2 hPa 0,0 l/m 2 min 0 min 250 W/m 25,1 km/h (4 Bft) 95,74 %
12.09.2017 17:56 17,7 C 17,8 C 15,6 C 70 % 0 lf 1007,1 hPa 0,0 l/m 2 min 0 min 245 W/m 23,0 km/h (4 Bft) 95,74 %
12.09.2017 17:58 17,7 C 17,8 C 15,6 C 69 % 0 lf 1007,2 hPa 0,0 l/m 2 min 0 min 241 W/m 25,1 km/h (4 Bft) 97,83 %
12.09.2017 18:00 17,7 C 17,8 C 15,6 C 69 % 0 lf 1007,2 hPa 0,0 l/m 2 min 0 min 241 W/m 27,2 km/h (4 Bft) 95,74 %
12.09.2017 18:02 17,7 C 17,8 C 15,6 C 69 % 0 lf 1007,3 hPa 0,0 l/m 2 min 0 min 240 W/m 25,1 km/h (4 Bft) 93,62 %
12.09.2017 18:04 17,7 C 17,8 C 15,6 C 68 % 0 lf 1007,2 hPa 0,0 l/m 2 min 0 min 232 W/m 25,1 km/h (4 Bft) 95,74 %
12.09.2017 18:06 17,7 C 17,8 C 15,6 C 68 % 0 lf 1007,2 hPa 0,0 l/m 2 min 0 min 221 W/m 25,1 km/h (4 Bft) 95,74 %
12.09.2017 18:10 17,7 C 17,8 C 15,6 C 69 % 0 lf 1007,3 hPa 0,0 l/m 4 min 0 min 213 W/m 23,0 km/h (4 Bft) 99,00 %
12.09.2017 18:12 17,7 C 17,8 C 15,6 C 69 % 0 lf 1007,3 hPa 0,0 l/m 2 min 0 min 197 W/m 14,6 km/h (3 Bft) 100,00 %
12.09.2017 18:14 17,7 C 17,8 C 15,6 C 69 % 0 lf 1007,3 hPa 0,0 l/m 2 min 0 min 192 W/m 18,8 km/h (3 Bft) 100,00 %
12.09.2017 18:16 17,7 C 17,8 C 15,6 C 69 % 0 lf 1007,2 hPa 0,0 l/m 2 min 0 min 187 W/m 16,7 km/h (3 Bft) 100,00 %
12.09.2017 18:18 17,7 C 17,8 C 15,6 C 69 % 0 lf 1007,2 hPa 0,0 l/m 2 min 0 min 178 W/m 25,1 km/h (4 Bft) 100,00 %
12.09.2017 18:20 17,6 C 17,8 C 15,0 C 69 % 0 lf 1007,2 hPa 0,0 l/m 2 min 0 min 173 W/m 29,3 km/h (5 Bft) 97,87 %
12.09.2017 18:22 17,6 C 17,2 C 15,0 C 69 % 0 lf 1007,2 hPa 0,0 l/m 2 min 0 min 167 W/m 25,1 km/h (4 Bft) 100,00 %
12.09.2017 18:24 17,6 C 17,2 C 15,0 C 69 % 0 lf 1007,2 hPa 0,0 l/m 2 min 0 min 161 W/m 20,9 km/h (4 Bft) 97,87 %
12.09.2017 18:26 17,5 C 17,2 C 15,0 C 69 % 0 lf 1007,2 hPa 0,0 l/m 2 min 0 min 154 W/m 25,1 km/h (4 Bft) 100,00 %
12.09.2017 18:28 17,4 C 17,2 C 15,0 C 69 % 0 lf 1007,3 hPa 0,0 l/m 2 min 0 min 148 W/m 18,8 km/h (3 Bft) 97,87 %
12.09.2017 18:30 17,4 C 17,2 C 15,0 C 69 % 0 lf 1007,3 hPa 0,0 l/m 2 min 0 min 116 W/m 18,8 km/h (3 Bft) 97,87 %
12.09.2017 18:32 17,4 C 17,2 C 15,0 C 70 % 0 lf 1007,3 hPa 0,0 l/m 2 min 0 min 120 W/m 14,6 km/h (3 Bft) 100,00 %
12.09.2017 18:34 17,4 C 17,2 C 15,0 C 70 % 0 lf 1007,2 hPa 0,0 l/m 2 min 0 min 124 W/m 14,6 km/h (3 Bft) 97,87 %
12.09.2017 18:36 17,3 C 17,2 C 15,0 C 70 % 0 lf 1007,2 hPa 0,0 l/m 2 min 0 min 124 W/m 20,9 km/h (4 Bft) 100,00 %
12.09.2017 18:38 17,3 C 17,2 C 15,0 C 70 % 0 lf 1007,3 hPa 0,0 l/m 2 min 0 min 123 W/m 12,6 km/h (3 Bft) 100,00 %
12.09.2017 18:40 17,3 C 17,2 C 15,0 C 70 % 0 lf 1007,2 hPa 0,0 l/m 2 min 0 min 113 W/m 12,6 km/h (3 Bft) 95,74 %
12.09.2017 18:42 17,3 C 16,7 C 14,4 C 71 % 0 lf 1007,2 hPa 0,0 l/m 0 min 0 min 72 W/m 14,6 km/h (3 Bft) 100,00 %
12.09.2017 18:44 17,2 C 16,7 C 14,4 C 71 % 0 lf 1007,2 hPa 0,0 l/m 2 min 0 min 101 W/m 20,9 km/h (4 Bft) 95,74 %
12.09.2017 18:46 17,2 C 16,7 C 14,4 C 71 % 0 lf 1007,2 hPa 0,0 l/m 2 min 0 min 94 W/m 12,6 km/h (3 Bft) 100,00 %
12.09.2017 18:48 17,2 C 16,7 C 14,4 C 71 % 0 lf 1007,3 hPa 0,0 l/m 2 min 0 min 99 W/m 10,5 km/h (2 Bft) 97,87 %
12.09.2017 18:50 17,2 C 16,7 C 14,4 C 72 % 0 lf 1007,3 hPa 0,0 l/m 2 min 0 min 92 W/m 4,2 km/h (1 Bft) 96,23 %
12.09.2017 18:52 17,1 C 16,7 C 14,4 C 72 % 0 lf 1007,3 hPa 0,0 l/m 2 min 0 min 85 W/m 8,4 km/h (2 Bft) 97,56 %
12.09.2017 18:54 17,1 C 16,7 C 13,9 C 72 % 0 lf 1007,3 hPa 0,0 l/m 2 min 0 min 80 W/m 8,4 km/h (2 Bft) 97,87 %
12.09.2017 18:56 17,1 C 16,7 C 14,4 C 73 % 0 lf 1007,3 hPa 0,0 l/m 2 min 0 min 76 W/m 6,3 km/h (2 Bft) 95,65 %
12.09.2017 18:58 17,1 C 16,7 C 14,4 C 73 % 0 lf 1007,3 hPa 0,0 l/m 0 min 0 min 69 W/m 8,4 km/h (2 Bft) 95,74 %
12.09.2017 19:00 17,1 C 16,7 C 14,4 C 72 % 0 lf 1007,3 hPa 0,0 l/m 0 min 0 min 59 W/m 12,6 km/h (3 Bft) 95,74 %
12.09.2017 19:02 17,1 C 16,1 C 14,4 C 72 % 0 lf 1007,3 hPa 0,0 l/m 0 min 0 min 49 W/m 12,6 km/h (3 Bft) 95,74 %
12.09.2017 19:04 17,0 C 16,1 C 13,9 C 72 % 0 lf 1007,3 hPa 0,0 l/m 0 min 0 min 44 W/m 8,4 km/h (2 Bft) 97,87 %
12.09.2017 19:06 16,9 C 16,1 C 13,9 C 73 % 0 lf 1007,4 hPa 0,0 l/m 0 min 0 min 45 W/m 6,3 km/h (2 Bft) 97,87 %
12.09.2017 19:08 16,9 C 16,1 C 13,9 C 73 % 0 lf 1007,5 hPa 0,0 l/m 0 min 0 min 44 W/m 4,2 km/h (1 Bft) 97,83 %
12.09.2017 19:10 16,9 C 16,1 C 13,9 C 73 % 0 lf 1007,5 hPa 0,0 l/m 0 min 0 min 44 W/m 4,2 km/h (1 Bft) 97,87 %
12.09.2017 19:12 16,9 C 16,1 C 13,9 C 74 % 0 lf 1007,4 hPa 0,0 l/m 0 min 0 min 44 W/m 6,3 km/h (2 Bft) 97,87 %
12.09.2017 19:14 16,9 C 16,1 C 13,9 C 74 % 0 lf 1007,5 hPa 0,0 l/m 0 min 0 min 43 W/m 8,4 km/h (2 Bft) 97,87 %
12.09.2017 19:16 16,8 C 16,1 C 13,9 C 74 % 0 lf 1007,5 hPa 0,0 l/m 0 min 0 min 42 W/m 10,5 km/h (2 Bft) 97,87 %
12.09.2017 19:18 16,8 C 16,1 C 13,9 C 74 % 0 lf 1007,5 hPa 0,0 l/m 0 min 0 min 41 W/m 8,4 km/h (2 Bft) 97,87 %
12.09.2017 19:20 16,8 C 16,1 C 13,3 C 74 % 0 lf 1007,5 hPa 0,0 l/m 0 min 0 min 39 W/m 8,4 km/h (2 Bft) 98,08 %
12.09.2017 19:22 16,7 C 16,1 C 13,9 C 74 % 0 lf 1007,4 hPa 0,0 l/m 2 min 0 min 39 W/m 10,5 km/h (2 Bft) 92,86 %
12.09.2017 19:24 16,7 C 15,6 C 13,9 C 74 % 0 lf 1007,4 hPa 0,0 l/m 2 min 0 min 39 W/m 4,2 km/h (1 Bft) 95,74 %
12.09.2017 19:26 16,6 C 15,6 C 13,3 C 74 % 0 lf 1007,4 hPa 0,0 l/m 2 min 0 min 38 W/m 4,2 km/h (1 Bft) 97,87 %
12.09.2017 19:28 16,6 C 15,6 C 13,3 C 74 % 0 lf 1007,4 hPa 0,0 l/m 2 min 0 min 37 W/m 6,3 km/h (2 Bft) 95,74 %
12.09.2017 19:30 16,6 C 15,6 C 13,3 C 74 % 0 lf 1007,3 hPa 0,0 l/m 2 min 0 min 34 W/m 6,3 km/h (2 Bft) 93,48 %
12.09.2017 19:32 16,6 C 15,6 C 13,3 C 75 % 0 lf 1007,3 hPa 0,0 l/m 2 min 0 min 30 W/m 6,3 km/h (2 Bft) 93,62 %
12.09.2017 19:34 16,5 C 15,6 C 13,3 C 75 % 0 lf 1007,4 hPa 0,0 l/m 2 min 0 min 28 W/m 4,2 km/h (1 Bft) 100,00 %
12.09.2017 19:36 16,5 C 15,0 C 12,8 C 75 % 0 lf 1007,3 hPa 0,0 l/m 2 min 0 min 27 W/m 6,3 km/h (2 Bft) 97,87 %
12.09.2017 19:38 16,4 C 15,0 C 12,8 C 75 % 0 lf 1007,3 hPa 0,0 l/m 2 min 0 min 25 W/m 4,2 km/h (1 Bft) 97,87 %
12.09.2017 19:40 16,4 C 15,0 C 12,8 C 75 % 0 lf 1007,3 hPa 0,0 l/m 2 min 0 min 24 W/m 4,2 km/h (1 Bft) 95,74 %
12.09.2017 19:42 16,4 C 15,0 C 12,8 C 75 % 0 lf 1007,4 hPa 0,0 l/m 2 min 0 min 22 W/m 4,2 km/h (1 Bft) 97,83 %
12.09.2017 19:44 16,3 C 15,0 C 12,8 C 75 % 0 lf 1007,4 hPa 0,0 l/m 2 min 0 min 20 W/m 4,2 km/h (1 Bft) 97,87 %
12.09.2017 19:46 16,3 C 15,0 C 12,8 C 76 % 0 lf 1007,4 hPa 0,0 l/m 0 min 0 min 19 W/m 6,3 km/h (2 Bft) 97,87 %
12.09.2017 19:48 16,3 C 15,0 C 12,8 C 76 % 0 lf 1007,5 hPa 0,0 l/m 0 min 0 min 12 W/m 8,4 km/h (2 Bft) 97,87 %
12.09.2017 19:50 16,2 C 15,0 C 12,8 C 76 % 0 lf 1007,4 hPa 0,0 l/m 0 min 0 min 11 W/m 10,5 km/h (2 Bft) 91,49 %
12.09.2017 19:52 16,2 C 15,0 C 12,8 C 77 % 0 lf 1007,5 hPa 0,0 l/m 0 min 0 min 9 W/m 10,5 km/h (2 Bft) 97,92 %
12.09.2017 19:54 16,1 C 15,0 C 13,3 C 77 % 0 lf 1007,5 hPa 0,0 l/m 0 min 0 min 7 W/m 8,4 km/h (2 Bft) 97,83 %
12.09.2017 19:56 16,1 C 15,0 C 13,3 C 77 % 0 lf 1007,5 hPa 0,0 l/m 0 min 0 min 7 W/m 14,6 km/h (3 Bft) 97,87 %
12.09.2017 19:58 16,0 C 15,0 C 13,3 C 77 % 0 lf 1007,5 hPa 0,0 l/m 0 min 0 min 7 W/m 12,6 km/h (3 Bft) 95,74 %
12.09.2017 20:00 15,9 C 15,0 C 13,3 C 77 % 0 lf 1007,5 hPa 0,0 l/m 0 min 0 min 7 W/m 12,6 km/h (3 Bft) 97,87 %
12.09.2017 20:02 15,8 C 15,0 C 13,9 C 78 % 0 lf 1007,5 hPa 0,0 l/m 0 min 0 min 5 W/m 20,9 km/h (4 Bft) 97,87 %
12.09.2017 20:04 15,8 C 15,0 C 13,3 C 78 % 0 lf 1007,5 hPa 0,0 l/m 0 min 0 min 5 W/m 12,6 km/h (3 Bft) 95,74 %
12.09.2017 20:06 15,8 C 15,0 C 13,3 C 78 % 0 lf 1007,6 hPa 0,0 l/m 0 min 0 min 5 W/m 14,6 km/h (3 Bft) 95,65 %
12.09.2017 20:08 15,7 C 15,0 C 13,3 C 79 % 0 lf 1007,6 hPa 0,0 l/m 0 min 0 min 5 W/m 16,7 km/h (3 Bft) 97,87 %
12.09.2017 20:10 15,7 C 15,0 C 13,3 C 79 % 0 lf 1007,6 hPa 0,0 l/m 0 min 0 min 5 W/m 23,0 km/h (4 Bft) 97,87 %
12.09.2017 20:12 15,6 C 15,0 C 13,3 C 79 % 0 lf 1007,7 hPa 0,0 l/m 0 min 0 min 5 W/m 12,6 km/h (3 Bft) 95,74 %
12.09.2017 20:14 15,6 C 15,0 C 13,3 C 79 % 0 lf 1007,6 hPa 0,0 l/m 0 min 0 min 5 W/m 27,2 km/h (4 Bft) 97,87 %
12.09.2017 20:16 15,6 C 15,0 C 13,3 C 79 % 0 lf 1007,6 hPa 0,0 l/m 0 min 0 min 5 W/m 14,6 km/h (3 Bft) 95,74 %
12.09.2017 20:18 15,5 C 15,0 C 13,3 C 79 % 0 lf 1007,6 hPa 0,0 l/m 0 min 0 min 5 W/m 25,1 km/h (4 Bft) 97,83 %
12.09.2017 20:20 15,4 C 14,4 C 13,3 C 79 % 0 lf 1007,6 hPa 0,0 l/m 0 min 0 min 5 W/m 14,6 km/h (3 Bft) 93,62 %
12.09.2017 20:22 15,4 C 14,4 C 13,3 C 79 % 0 lf 1007,6 hPa 0,0 l/m 0 min 0 min 5 W/m 16,7 km/h (3 Bft) 97,87 %
12.09.2017 20:24 15,3 C 14,4 C 12,8 C 79 % 0 lf 1007,6 hPa 0,0 l/m 0 min 0 min 5 W/m 14,6 km/h (3 Bft) 87,23 %
12.09.2017 20:26 15,3 C 14,4 C 12,8 C 79 % 0 lf 1007,7 hPa 0,0 l/m 0 min 0 min 0 W/m 14,6 km/h (3 Bft) 95,74 %
12.09.2017 20:28 15,2 C 14,4 C 12,8 C 79 % 0 lf 1007,7 hPa 0,0 l/m 0 min 0 min 5 W/m 14,6 km/h (3 Bft) 95,74 %
12.09.2017 20:30 15,2 C 14,4 C 12,8 C 80 % 0 lf 1007,7 hPa 0,0 l/m 0 min 0 min 5 W/m 23,0 km/h (4 Bft) 95,65 %
12.09.2017 20:32 15,2 C 14,4 C 12,8 C 80 % 0 lf 1007,7 hPa 0,0 l/m 0 min 0 min 5 W/m 23,0 km/h (4 Bft) 93,62 %
12.09.2017 20:34 15,1 C 14,4 C 12,8 C 81 % 0 lf 1007,6 hPa 0,0 l/m 0 min 0 min 5 W/m 14,6 km/h (3 Bft) 93,62 %
12.09.2017 20:36 15,1 C 14,4 C 12,8 C 81 % 0 lf 1007,6 hPa 0,0 l/m 0 min 0 min 5 W/m 18,8 km/h (3 Bft) 95,74 %
12.09.2017 20:38 15,0 C 14,4 C 13,3 C 81 % 0 lf 1007,8 hPa 0,0 l/m 0 min 0 min 5 W/m 14,6 km/h (3 Bft) 95,74 %
12.09.2017 20:40 15,0 C 14,4 C 13,3 C 81 % 6 lf 1007,8 hPa 0,0 l/m 0 min 2 min 5 W/m 14,6 km/h (3 Bft) 95,65 %
12.09.2017 20:42 15,0 C 13,3 C 12,2 C 82 % 15 lf 1007,9 hPa 0,6 l/m 0 min 2 min 5 W/m 8,4 km/h (2 Bft) 93,62 %
12.09.2017 20:44 15,0 C 12,8 C 12,2 C 83 % 15 lf 1007,8 hPa 0,2 l/m 0 min 2 min 5 W/m 12,6 km/h (3 Bft) 95,74 %
12.09.2017 20:46 15,0 C 12,8 C 11,7 C 83 % 15 lf 1007,7 hPa 0,0 l/m 0 min 2 min 5 W/m 10,5 km/h (2 Bft) 95,74 %
12.09.2017 20:48 15,0 C 12,8 C 11,7 C 84 % 15 lf 1007,7 hPa 0,0 l/m 0 min 2 min 3 W/m 10,5 km/h (2 Bft) 93,62 %
12.09.2017 20:50 14,9 C 12,2 C 11,7 C 84 % 15 lf 1007,8 hPa 0,0 l/m 0 min 0 min 0 W/m 16,7 km/h (3 Bft) 95,74 %
12.09.2017 20:52 14,9 C 12,8 C 11,7 C 84 % 15 lf 1007,8 hPa 0,0 l/m 0 min 2 min 0 W/m 10,5 km/h (2 Bft) 91,30 %
12.09.2017 20:54 14,8 C 12,8 C 11,7 C 85 % 15 lf 1007,8 hPa 0,0 l/m 0 min 0 min 2 W/m 14,6 km/h (3 Bft) 93,62 %
12.09.2017 20:56 14,8 C 12,2 C 11,7 C 85 % 15 lf 1007,9 hPa 0,0 l/m 0 min 0 min 0 W/m 18,8 km/h (3 Bft) 93,62 %
12.09.2017 20:58 14,7 C 12,2 C 11,1 C 85 % 15 lf 1007,9 hPa 0,0 l/m 0 min 0 min 2 W/m 20,9 km/h (4 Bft) 91,49 %
12.09.2017 21:00 14,7 C 12,2 C 11,1 C 85 % 15 lf 1007,9 hPa 0,0 l/m 0 min 0 min 0 W/m 16,7 km/h (3 Bft) 93,62 %
12.09.2017 21:02 14,6 C 12,2 C 11,1 C 86 % 15 lf 1007,9 hPa 0,0 l/m 0 min 0 min 5 W/m 14,6 km/h (3 Bft) 93,62 %
12.09.2017 21:04 14,5 C 12,2 C 11,1 C 86 % 15 lf 1007,9 hPa 0,0 l/m 0 min 0 min 0 W/m 14,6 km/h (3 Bft) 93,48 %
12.09.2017 21:06 14,4 C 12,2 C 11,1 C 86 % 15 lf 1007,9 hPa 0,0 l/m 0 min 0 min 0 W/m 12,6 km/h (3 Bft) 91,49 %
12.09.2017 21:08 14,3 C 12,2 C 11,1 C 86 % 15 lf 1007,9 hPa 0,0 l/m 0 min 0 min 0 W/m 8,4 km/h (2 Bft) 93,62 %
12.09.2017 21:10 14,3 C 12,2 C 11,1 C 86 % 15 lf 1008,0 hPa 0,0 l/m 0 min 0 min 0 W/m 14,6 km/h (3 Bft) 93,62 %
12.09.2017 21:12 14,2 C 12,2 C 11,1 C 86 % 15 lf 1008,0 hPa 0,0 l/m 0 min 0 min 0 W/m 14,6 km/h (3 Bft) 93,62 %
12.09.2017 21:14 14,2 C 12,2 C 11,1 C 87 % 15 lf 1008,0 hPa 0,0 l/m 0 min 0 min 4 W/m 14,6 km/h (3 Bft) 93,62 %
12.09.2017 21:16 14,2 C 12,2 C 11,1 C 87 % 15 lf 1008,1 hPa 0,0 l/m 0 min 0 min 5 W/m 14,6 km/h (3 Bft) 95,65 %
12.09.2017 21:18 14,1 C 12,2 C 11,1 C 87 % 15 lf 1008,1 hPa 0,0 l/m 0 min 0 min 5 W/m 14,6 km/h (3 Bft) 93,62 %
12.09.2017 21:20 14,0 C 12,2 C 11,1 C 87 % 15 lf 1008,1 hPa 0,0 l/m 0 min 0 min 0 W/m 14,6 km/h (3 Bft) 97,87 %
12.09.2017 21:22 13,9 C 12,2 C 11,1 C 87 % 15 lf 1008,1 hPa 0,0 l/m 0 min 0 min 0 W/m 12,6 km/h (3 Bft) 100,00 %
12.09.2017 21:24 13,9 C 12,2 C 11,1 C 87 % 15 lf 1008,1 hPa 0,0 l/m 0 min 0 min 0 W/m 14,6 km/h (3 Bft) 95,74 %
12.09.2017 21:26 13,8 C 12,2 C 11,1 C 87 % 15 lf 1008,0 hPa 0,0 l/m 0 min 0 min 0 W/m 14,6 km/h (3 Bft) 97,87 %
12.09.2017 21:28 13,7 C 12,2 C 11,1 C 87 % 15 lf 1008,1 hPa 0,0 l/m 0 min 0 min 0 W/m 12,6 km/h (3 Bft) 97,83 %
12.09.2017 21:30 13,7 C 12,2 C 11,1 C 87 % 15 lf 1008,1 hPa 0,0 l/m 0 min 0 min 0 W/m 16,7 km/h (3 Bft) 100,00 %
12.09.2017 21:32 13,6 C 11,7 C 11,1 C 88 % 15 lf 1008,1 hPa 0,0 l/m 0 min 0 min 0 W/m 14,6 km/h (3 Bft) 100,00 %
12.09.2017 21:34 13,6 C 11,7 C 11,1 C 88 % 15 lf 1008,1 hPa 0,0 l/m 0 min 0 min 3 W/m 18,8 km/h (3 Bft) 100,00 %
12.09.2017 21:36 13,5 C 11,7 C 10,6 C 88 % 15 lf 1008,1 hPa 0,0 l/m 0 min 0 min 0 W/m 12,6 km/h (3 Bft) 100,00 %
12.09.2017 21:38 13,4 C 11,7 C 10,6 C 88 % 15 lf 1007,9 hPa 0,0 l/m 0 min 0 min 0 W/m 12,6 km/h (3 Bft) 100,00 %
12.09.2017 21:40 13,4 C 11,7 C 10,6 C 88 % 15 lf 1008,0 hPa 0,0 l/m 0 min 0 min 0 W/m 14,6 km/h (3 Bft) 100,00 %
12.09.2017 21:42 13,4 C 11,7 C 10,6 C 88 % 15 lf 1008,0 hPa 0,0 l/m 0 min 0 min 0 W/m 12,6 km/h (3 Bft) 100,00 %
12.09.2017 21:44 13,3 C 11,7 C 10,6 C 88 % 14 lf 1008,0 hPa 0,0 l/m 0 min 0 min 0 W/m 16,7 km/h (3 Bft) 100,00 %
12.09.2017 21:46 13,3 C 11,7 C 10,6 C 88 % 14 lf 1008,0 hPa 0,0 l/m 0 min 0 min 0 W/m 12,6 km/h (3 Bft) 100,00 %
12.09.2017 21:48 13,3 C 11,7 C 10,6 C 88 % 14 lf 1008,0 hPa 0,0 l/m 0 min 0 min 0 W/m 10,5 km/h (2 Bft) 100,00 %
12.09.2017 21:50 13,3 C 11,7 C 10,6 C 88 % 14 lf 1008,0 hPa 0,0 l/m 0 min 0 min 0 W/m 14,6 km/h (3 Bft) 100,00 %
12.09.2017 21:52 13,2 C 11,7 C 10,6 C 88 % 13 lf 1007,9 hPa 0,0 l/m 0 min 0 min 0 W/m 12,6 km/h (3 Bft) 100,00 %
12.09.2017 21:54 13,2 C 11,7 C 10,6 C 88 % 13 lf 1007,9 hPa 0,0 l/m 0 min 0 min 0 W/m 18,8 km/h (3 Bft) 97,87 %
12.09.2017 21:56 13,2 C 11,7 C 10,6 C 88 % 12 lf 1007,9 hPa 0,0 l/m 0 min 0 min 0 W/m 12,6 km/h (3 Bft) 100,00 %
12.09.2017 21:58 13,2 C 11,7 C 10,6 C 88 % 12 lf 1008,0 hPa 0,0 l/m 0 min 0 min 0 W/m 10,5 km/h (2 Bft) 97,87 %
12.09.2017 22:00 13,1 C 11,7 C 10,6 C 88 % 11 lf 1008,0 hPa 0,0 l/m 0 min 0 min 0 W/m 16,7 km/h (3 Bft) 100,00 %
12.09.2017 22:02 13,1 C 11,7 C 10,6 C 88 % 10 lf 1008,0 hPa 0,0 l/m 0 min 0 min 4 W/m 16,7 km/h (3 Bft) 97,87 %
12.09.2017 22:04 13,1 C 11,7 C 10,6 C 88 % 10 lf 1008,0 hPa 0,0 l/m 0 min 0 min 0 W/m 14,6 km/h (3 Bft) 97,87 %
12.09.2017 22:06 13,1 C 11,7 C 10,6 C 88 % 9 lf 1008,0 hPa 0,0 l/m 0 min 0 min 0 W/m 16,7 km/h (3 Bft) 100,00 %
12.09.2017 22:08 13,1 C 11,7 C 10,6 C 88 % 9 lf 1008,0 hPa 0,0 l/m 0 min 0 min 0 W/m 10,5 km/h (2 Bft) 100,00 %
12.09.2017 22:10 13,0 C 11,7 C 10,6 C 88 % 8 lf 1008,0 hPa 0,0 l/m 0 min 0 min 0 W/m 14,6 km/h (3 Bft) 97,87 %
12.09.2017 22:12 13,0 C 11,7 C 10,6 C 88 % 7 lf 1008,0 hPa 0,0 l/m 0 min 0 min 0 W/m 14,6 km/h (3 Bft) 100,00 %
12.09.2017 22:14 13,0 C 11,7 C 10,6 C 88 % 7 lf 1008,0 hPa 0,0 l/m 0 min 0 min 5 W/m 18,8 km/h (3 Bft) 100,00 %
12.09.2017 22:16 13,0 C 11,7 C 10,6 C 88 % 5 lf 1008,0 hPa 0,0 l/m 0 min 0 min 3 W/m 18,8 km/h (3 Bft) 100,00 %
12.09.2017 22:18 12,9 C 11,7 C 10,6 C 89 % 4 lf 1008,1 hPa 0,0 l/m 0 min 0 min 0 W/m 12,6 km/h (3 Bft) 100,00 %
12.09.2017 22:20 12,9 C 11,7 C 10,6 C 89 % 4 lf 1008,1 hPa 0,0 l/m 0 min 0 min 2 W/m 14,6 km/h (3 Bft) 100,00 %
12.09.2017 22:22 12,9 C 11,7 C 10,6 C 89 % 3 lf 1008,0 hPa 0,0 l/m 0 min 0 min 0 W/m 14,6 km/h (3 Bft) 100,00 %
12.09.2017 22:24 12,9 C 11,7 C 10,0 C 89 % 3 lf 1008,1 hPa 0,0 l/m 0 min 0 min 0 W/m 10,5 km/h (2 Bft) 97,83 %
12.09.2017 22:26 12,9 C 11,7 C 10,0 C 89 % 3 lf 1008,1 hPa 0,0 l/m 0 min 0 min 0 W/m 16,7 km/h (3 Bft) 95,74 %
12.09.2017 22:28 12,9 C 11,7 C 10,6 C 89 % 2 lf 1008,0 hPa 0,0 l/m 0 min 0 min 0 W/m 18,8 km/h (3 Bft) 95,74 %
12.09.2017 22:30 12,9 C 11,7 C 10,0 C 89 % 2 lf 1008,1 hPa 0,0 l/m 0 min 0 min 0 W/m 10,5 km/h (2 Bft) 97,87 %
12.09.2017 22:32 12,8 C 11,7 C 10,6 C 89 % 1 lf 1008,0 hPa 0,0 l/m 0 min 0 min 0 W/m 10,5 km/h (2 Bft) 95,74 %
12.09.2017 22:34 12,8 C 11,7 C 10,6 C 89 % 1 lf 1008,0 hPa 0,0 l/m 0 min 0 min 0 W/m 16,7 km/h (3 Bft) 95,74 %
12.09.2017 22:36 12,8 C 11,7 C 10,6 C 89 % 0 lf 1008,1 hPa 0,0 l/m 0 min 0 min 0 W/m 20,9 km/h (4 Bft) 95,65 %
12.09.2017 22:38 12,8 C 11,7 C 10,6 C 89 % 0 lf 1008,1 hPa 0,0 l/m 0 min 0 min 0 W/m 20,9 km/h (4 Bft) 95,74 %
12.09.2017 22:40 12,8 C 11,7 C 10,6 C 89 % 0 lf 1008,1 hPa 0,0 l/m 0 min 0 min 0 W/m 14,6 km/h (3 Bft) 93,62 %
12.09.2017 22:42 12,7 C 11,7 C 10,6 C 89 % 0 lf 1008,1 hPa 0,0 l/m 0 min 0 min 0 W/m 12,6 km/h (3 Bft) 93,62 %
12.09.2017 22:44 12,7 C 11,7 C 10,0 C 89 % 0 lf 1008,0 hPa 0,0 l/m 0 min 0 min 0 W/m 14,6 km/h (3 Bft) 95,74 %
12.09.2017 22:46 12,7 C 11,7 C 10,0 C 89 % 0 lf 1008,0 hPa 0,0 l/m 0 min 0 min 0 W/m 12,6 km/h (3 Bft) 95,65 %
12.09.2017 22:48 12,7 C 11,7 C 10,0 C 89 % 0 lf 1008,0 hPa 0,0 l/m 0 min 0 min 0 W/m 14,6 km/h (3 Bft) 93,62 %
12.09.2017 22:50 12,7 C 11,7 C 10,0 C 89 % 0 lf 1008,0 hPa 0,0 l/m 0 min 0 min 0 W/m 12,6 km/h (3 Bft) 95,74 %
12.09.2017 22:52 12,6 C 11,7 C 10,0 C 89 % 0 lf 1008,0 hPa 0,0 l/m 0 min 0 min 0 W/m 12,6 km/h (3 Bft) 93,62 %
12.09.2017 22:54 12,6 C 11,7 C 10,0 C 89 % 0 lf 1008,1 hPa 0,0 l/m 0 min 0 min 0 W/m 14,6 km/h (3 Bft) 95,74 %
12.09.2017 22:56 12,6 C 11,7 C 10,0 C 89 % 0 lf 1008,1 hPa 0,0 l/m 0 min 0 min 0 W/m 16,7 km/h (3 Bft) 95,74 %
12.09.2017 22:58 12,6 C 11,7 C 10,0 C 89 % 0 lf 1008,1 hPa 0,0 l/m 0 min 0 min 0 W/m 14,6 km/h (3 Bft) 89,36 %
12.09.2017 23:00 12,6 C 11,1 C 10,0 C 89 % 0 lf 1008,0 hPa 0,0 l/m 0 min 0 min 0 W/m 18,8 km/h (3 Bft) 95,65 %
12.09.2017 23:02 12,6 C 11,7 C 10,0 C 89 % 0 lf 1008,0 hPa 0,0 l/m 0 min 0 min 0 W/m 16,7 km/h (3 Bft) 93,62 %
12.09.2017 23:04 12,5 C 11,1 C 10,0 C 89 % 0 lf 1008,0 hPa 0,0 l/m 0 min 0 min 0 W/m 12,6 km/h (3 Bft) 91,49 %
12.09.2017 23:06 12,5 C 11,7 C 10,0 C 89 % 0 lf 1008,0 hPa 0,0 l/m 0 min 0 min 0 W/m 16,7 km/h (3 Bft) 93,62 %
12.09.2017 23:08 12,5 C 11,1 C 10,0 C 89 % 0 lf 1008,0 hPa 0,0 l/m 0 min 0 min 0 W/m 18,8 km/h (3 Bft) 93,62 %
12.09.2017 23:10 12,4 C 11,1 C 10,0 C 89 % 0 lf 1008,0 hPa 0,0 l/m 0 min 0 min 0 W/m 14,6 km/h (3 Bft) 91,30 %
12.09.2017 23:12 12,4 C 11,1 C 10,0 C 89 % 0 lf 1008,0 hPa 0,0 l/m 0 min 0 min 0 W/m 14,6 km/h (3 Bft) 91,49 %
12.09.2017 23:14 12,4 C 11,1 C 10,0 C 89 % 0 lf 1008,0 hPa 0,0 l/m 0 min 0 min 0 W/m 14,6 km/h (3 Bft) 95,74 %
12.09.2017 23:16 12,4 C 11,7 C 10,0 C 89 % 0 lf 1008,1 hPa 0,0 l/m 0 min 0 min 0 W/m 20,9 km/h (4 Bft) 93,62 %
12.09.2017 23:18 12,4 C 11,7 C 10,0 C 89 % 0 lf 1008,1 hPa 0,0 l/m 0 min 0 min 0 W/m 16,7 km/h (3 Bft) 97,87 %
12.09.2017 23:20 12,4 C 11,1 C 10,0 C 89 % 0 lf 1008,1 hPa 0,0 l/m 0 min 0 min 0 W/m 18,8 km/h (3 Bft) 97,87 %
12.09.2017 23:22 12,4 C 11,1 C 10,0 C 89 % 0 lf 1008,1 hPa 0,0 l/m 0 min 0 min 0 W/m 14,6 km/h (3 Bft) 95,65 %
12.09.2017 23:24 12,4 C 11,7 C 10,0 C 89 % 0 lf 1008,1 hPa 0,0 l/m 0 min 0 min 0 W/m 20,9 km/h (4 Bft) 93,62 %
12.09.2017 23:26 12,4 C 11,1 C 10,0 C 89 % 0 lf 1008,1 hPa 0,0 l/m 0 min 0 min 0 W/m 20,9 km/h (4 Bft) 97,87 %
12.09.2017 23:28 12,4 C 11,7 C 10,0 C 89 % 0 lf 1008,0 hPa 0,0 l/m 0 min 0 min 0 W/m 20,9 km/h (4 Bft) 97,87 %
12.09.2017 23:30 12,4 C 11,7 C 10,0 C 89 % 0 lf 1008,1 hPa 0,0 l/m 0 min 0 min 0 W/m 14,6 km/h (3 Bft) 97,87 %
12.09.2017 23:32 12,4 C 11,7 C 10,0 C 89 % 0 lf 1008,1 hPa 0,0 l/m 0 min 0 min 0 W/m 16,7 km/h (3 Bft) 91,49 %
12.09.2017 23:34 12,4 C 11,7 C 10,0 C 89 % 0 lf 1008,0 hPa 0,0 l/m 0 min 0 min 0 W/m 16,7 km/h (3 Bft) 97,83 %
12.09.2017 23:36 12,4 C 11,7 C 10,0 C 89 % 0 lf 1008,0 hPa 0,0 l/m 0 min 0 min 0 W/m 20,9 km/h (4 Bft) 97,87 %
12.09.2017 23:38 12,4 C 11,7 C 10,0 C 89 % 0 lf 1007,9 hPa 0,0 l/m 0 min 0 min 0 W/m 16,7 km/h (3 Bft) 97,87 %
12.09.2017 23:40 12,4 C 11,7 C 10,6 C 89 % 0 lf 1007,9 hPa 0,0 l/m 0 min 0 min 0 W/m 23,0 km/h (4 Bft) 97,87 %
12.09.2017 23:42 12,4 C 11,7 C 10,0 C 89 % 0 lf 1007,8 hPa 0,0 l/m 0 min 0 min 0 W/m 16,7 km/h (3 Bft) 97,87 %
12.09.2017 23:44 12,4 C 11,7 C 10,0 C 89 % 0 lf 1007,8 hPa 0,0 l/m 0 min 0 min 0 W/m 20,9 km/h (4 Bft) 93,62 %
12.09.2017 23:46 12,4 C 11,7 C 10,0 C 89 % 0 lf 1007,6 hPa 0,0 l/m 0 min 0 min 0 W/m 20,9 km/h (4 Bft) 100,00 %
12.09.2017 23:48 12,4 C 11,7 C 10,0 C 89 % 0 lf 1007,6 hPa 0,0 l/m 0 min 0 min 0 W/m 14,6 km/h (3 Bft) 100,00 %
12.09.2017 23:50 12,4 C 11,7 C 10,0 C 89 % 0 lf 1007,4 hPa 0,0 l/m 0 min 0 min 0 W/m 14,6 km/h (3 Bft) 100,00 %
12.09.2017 23:52 12,4 C 11,7 C 10,0 C 89 % 0 lf 1007,5 hPa 0,0 l/m 0 min 0 min 0 W/m 18,8 km/h (3 Bft) 100,00 %
12.09.2017 23:54 12,4 C 11,7 C 10,0 C 88 % 0 lf 1007,5 hPa 0,0 l/m 0 min 0 min 0 W/m 25,1 km/h (4 Bft) 100,00 %
12.09.2017 23:56 12,4 C 12,2 C 10,0 C 88 % 0 lf 1007,5 hPa 0,0 l/m 0 min 0 min 0 W/m 18,8 km/h (3 Bft) 100,00 %
12.09.2017 23:58 12,4 C 12,2 C 10,0 C 88 % 0 lf 1007,4 hPa 0,0 l/m 0 min 0 min 0 W/m 20,9 km/h (4 Bft) 100,00 %
_ Min-Zeit 05:28 05:02 04:48 18:04 00:00 01:08 - - - - 18:50 00:10
Minimum _ 11,9 C 10,6 C 10,0 C 68 % 0 lf 998,8 hPa - - - - 4,2 km/h (1 Bft) 86,96 %
_ Max-Zeit 17:28 13:04 12:24 07:02 03:48 21:16 20:42 12:10 06:10 12:30 00:54 00:46
Maximum _ 17,9 C 26,1 C 23,3 C 96 % 15 lf 1008,1 hPa 0,6 l/m 4 min 4 min 886 W/m 48,1 km/h
W (6 Bft)
100,00 %
Durchschnitt _ 14,6 C 15,2 C 13,0 C 85 % 5 lf 1004,2 hPa #3,8 l/m #6:48 h #2:46 h 229 W/m 21,3 km/h (4 Bft) 96,49 %
© 2017 W. Hausmann